KLM895 EHAM-ZSPD

Flight info

Callsign KLM895
Flight time 11h 51m
Altitude 35000
Route ARNEM L620 OMELO DCT PEPIK DCT BUDOP DCT LUGEB DCT UDROS UM859 KARDE UN644 FALAZ UN644 ROLIN N644 ODILI DCT BARAD M747 LUSAL N199 RASAM L88 METKA B476 TIMGA A480 OTBOR N147 TRK Z621 ARBOL M610 TOMGO M610 RULAD MA343 POSOT B215 FKG W188 GOVSA W66 DKO W69 EGILOW69 HUR B339 SOTMU W98 ELKUR W40 DOXAB W40 YQG W142 DALIM A593 DPX A470 DALNU W166 ZJ W167 SASAN
Aircraft B772/H-SDE2E3FGHIJ5LORVWXY/LB1D1

Departure

Time 2026-05-04 08:43
Airport Amsterdam Airport Schiphol (EHAM)

Arrival

Time 2026-05-04 20:35
Airport Shanghai Pudong International Airport (ZSPD)
Time Latitude Longitude Altitude Speed Heading
2026-05-04 08:13 52.31265 4.76050 3 ft 0 kts 109°
2026-05-04 08:14 52.31262 4.76064 3 ft 0 kts 109°
2026-05-04 08:33 52.31252 4.75937 6 ft 0 kts 357°
2026-05-04 08:37 52.31357 4.75930 3 ft 19 kts 357°
2026-05-04 08:37 52.31450 4.76030 3 ft 19 kts 87°
2026-05-04 08:37 52.31456 4.76241 3 ft 19 kts 87°
2026-05-04 08:38 52.31463 4.76452 3 ft 19 kts 87°
2026-05-04 08:38 52.31469 4.76663 3 ft 19 kts 87°
2026-05-04 08:38 52.31475 4.76875 3 ft 19 kts 87°
2026-05-04 08:40 52.31036 4.77485 3 ft 18 kts 184°
2026-05-04 08:40 52.30915 4.77473 3 ft 18 kts 183°
2026-05-04 08:40 52.30793 4.77463 3 ft 18 kts 183°
2026-05-04 08:41 52.30671 4.77464 3 ft 18 kts 163°
2026-05-04 08:41 52.30562 4.77552 3 ft 18 kts 153°
2026-05-04 08:41 52.30455 4.77639 3 ft 10 kts 153°
2026-05-04 08:41 52.30408 4.77630 4 ft 8 kts 236°
2026-05-04 08:42 52.30403 4.77615 3 ft 0 kts 240°
2026-05-04 08:42 52.30394 4.77589 2 ft 12 kts 240°
2026-05-04 08:42 52.30263 4.77246 0 ft 67 kts 237°
2026-05-04 08:42 52.29898 4.76301 1 ft 128 kts 238°
2026-05-04 08:43 52.29333 4.74828 22 ft 175 kts 237°
2026-05-04 08:43 52.28683 4.73074 490 ft 182 kts 238°
2026-05-04 08:43 52.27972 4.71243 947 ft 197 kts 237°
2026-05-04 08:43 52.27227 4.69326 1399 ft 203 kts 231°
2026-05-04 08:44 52.26073 4.67987 1705 ft 209 kts 195°
2026-05-04 08:44 52.24618 4.67981 2028 ft 218 kts 161°
2026-05-04 08:46 52.18107 4.84257 4895 ft 268 kts 120°
2026-05-04 08:46 52.17401 4.87038 5272 ft 271 kts 96°
2026-05-04 08:46 52.17653 4.90065 5697 ft 271 kts 71°
2026-05-04 08:46 52.18258 4.93017 6094 ft 278 kts 72°
2026-05-04 08:47 52.18837 4.96032 6617 ft 280 kts 72°
2026-05-04 08:47 52.19415 4.99076 7118 ft 282 kts 72°
2026-05-04 08:47 52.19997 5.02150 7577 ft 285 kts 73°
2026-05-04 08:47 52.20584 5.05255 8049 ft 289 kts 73°
2026-05-04 08:48 52.21179 5.08407 8492 ft 292 kts 73°
2026-05-04 08:48 52.21777 5.11590 8931 ft 295 kts 73°
2026-05-04 08:48 52.22380 5.14802 9386 ft 298 kts 73°
2026-05-04 08:48 52.22989 5.18056 9827 ft 301 kts 73°
2026-05-04 08:49 52.23602 5.21339 10211 ft 304 kts 73°
2026-05-04 08:50 52.23585 5.42208 12349 ft 325 kts 96°
2026-05-04 08:50 52.23395 5.45919 12718 ft 331 kts 96°
2026-05-04 08:51 52.23201 5.49693 13103 ft 338 kts 96°
2026-05-04 08:51 52.22950 5.53466 13458 ft 339 kts 104°
2026-05-04 08:51 52.22199 5.57119 13844 ft 342 kts 115°
2026-05-04 08:51 52.21259 5.60715 14202 ft 348 kts 115°
2026-05-04 08:52 52.20309 5.64393 14561 ft 356 kts 115°
2026-05-04 08:52 52.19353 5.68166 14913 ft 364 kts 115°
2026-05-04 08:52 52.18391 5.72018 15278 ft 371 kts 114°
2026-05-04 08:52 52.17416 5.75963 15651 ft 379 kts 114°
2026-05-04 08:53 52.16427 5.79987 16023 ft 387 kts 114°
2026-05-04 08:54 52.09174 6.10009 18505 ft 423 kts 106°
2026-05-04 08:55 52.08637 6.14750 18756 ft 429 kts 101°
2026-05-04 08:55 52.08219 6.19570 19004 ft 433 kts 100°
2026-05-04 08:55 52.07794 6.24443 19247 ft 437 kts 101°
2026-05-04 08:55 52.07340 6.29347 19502 ft 440 kts 101°
2026-05-04 08:57 52.03697 6.64299 21324 ft 457 kts 103°
2026-05-04 09:01 51.92279 7.35789 24755 ft 479 kts 111°
2026-05-04 09:01 51.91315 7.40922 24981 ft 481 kts 111°
2026-05-04 09:01 51.90336 7.46153 25178 ft 482 kts 111°
2026-05-04 09:01 51.89363 7.51357 25386 ft 484 kts 111°
2026-05-04 09:02 51.88383 7.56580 25598 ft 485 kts 111°
2026-05-04 09:02 51.87399 7.61816 25811 ft 487 kts 111°
2026-05-04 09:02 51.86408 7.67059 26026 ft 489 kts 111°
2026-05-04 09:02 51.85445 7.72345 26209 ft 492 kts 108°
2026-05-04 09:03 51.84652 7.77740 26394 ft 494 kts 107°
2026-05-04 09:03 51.83888 7.83163 26559 ft 496 kts 107°
2026-05-04 09:03 51.83123 7.88609 26788 ft 496 kts 107°
2026-05-04 09:03 51.82351 7.94049 26992 ft 497 kts 107°
2026-05-04 09:04 51.81569 7.99493 27183 ft 499 kts 107°
2026-05-04 09:04 51.80777 8.04959 27353 ft 500 kts 107°
2026-05-04 09:04 51.79977 8.10439 27524 ft 502 kts 107°
2026-05-04 09:04 51.79444 8.14071 27638 ft 503 kts 107°
2026-05-04 09:05 51.78637 8.19571 27816 ft 504 kts 107°
2026-05-04 09:05 51.77826 8.25084 27979 ft 505 kts 107°
2026-05-04 09:05 51.77011 8.30601 28152 ft 506 kts 107°
2026-05-04 09:05 51.76201 8.36127 28364 ft 506 kts 106°
2026-05-04 09:06 51.75426 8.41664 28527 ft 507 kts 105°
2026-05-04 09:07 51.70019 8.80854 29583 ft 514 kts 106°
2026-05-04 09:08 51.69223 8.86483 29728 ft 515 kts 106°
2026-05-04 09:08 51.68424 8.92114 29854 ft 516 kts 106°
2026-05-04 09:08 51.67621 8.97754 30045 ft 516 kts 106°
2026-05-04 09:08 51.66817 9.03384 30231 ft 515 kts 106°
2026-05-04 09:09 51.66012 9.09007 30440 ft 515 kts 106°
2026-05-04 09:09 51.65205 9.14613 30611 ft 514 kts 106°
2026-05-04 09:09 51.64396 9.20222 30797 ft 514 kts 106°
2026-05-04 09:09 51.63584 9.25823 30980 ft 513 kts 106°
2026-05-04 09:10 51.62771 9.31414 31192 ft 513 kts 107°
2026-05-04 09:10 51.61956 9.37000 31403 ft 512 kts 107°
2026-05-04 09:10 51.61139 9.42576 31594 ft 512 kts 107°
2026-05-04 09:10 51.60319 9.48151 31789 ft 512 kts 107°
2026-05-04 09:11 51.59498 9.53719 31997 ft 511 kts 107°
2026-05-04 09:11 51.58676 9.59271 32198 ft 511 kts 107°
2026-05-04 09:11 51.57857 9.64785 32409 ft 510 kts 107°
2026-05-04 09:11 51.57035 9.70300 32606 ft 509 kts 107°
2026-05-04 09:12 51.56207 9.75833 32850 ft 508 kts 107°
2026-05-04 09:12 51.55379 9.81347 33073 ft 508 kts 107°
2026-05-04 09:14 51.49535 10.19736 34412 ft 506 kts 107°
2026-05-04 09:14 51.48690 10.25207 34583 ft 505 kts 107°
2026-05-04 09:14 51.47844 10.30674 34755 ft 505 kts 107°
2026-05-04 09:14 51.46995 10.36142 34880 ft 505 kts 107°
2026-05-04 09:15 51.46144 10.41614 34945 ft 507 kts 107°
2026-05-04 09:15 51.44418 10.52622 35012 ft 511 kts 108°
2026-05-04 09:17 51.36348 11.02818 35004 ft 517 kts 108°
2026-05-04 09:18 51.34555 11.13939 35005 ft 515 kts 108°
2026-05-04 09:18 51.32762 11.24990 35011 ft 512 kts 108°
2026-05-04 09:19 51.30962 11.35986 35008 ft 510 kts 108°
2026-05-04 09:19 51.29173 11.46869 35015 ft 509 kts 108°
2026-05-04 09:20 51.27285 11.57748 35011 ft 507 kts 109°
2026-05-04 09:20 51.25458 11.68623 35017 ft 507 kts 108°
2026-05-04 09:21 51.23662 11.79484 35016 ft 506 kts 108°
2026-05-04 09:21 51.21840 11.90336 35023 ft 506 kts 108°
2026-05-04 09:22 51.19993 12.01168 35009 ft 506 kts 109°
2026-05-04 09:22 51.18116 12.11982 35024 ft 506 kts 109°
2026-05-04 09:23 51.16234 12.22803 35035 ft 507 kts 108°
2026-05-04 09:23 51.14333 12.33630 35018 ft 508 kts 109°
2026-05-04 09:25 51.06596 12.76920 35017 ft 509 kts 109°
2026-05-04 09:26 51.04620 12.87719 35009 ft 509 kts 109°
2026-05-04 09:26 51.02652 12.98436 35010 ft 509 kts 109°
2026-05-04 09:27 51.00649 13.09287 35017 ft 508 kts 109°
2026-05-04 09:27 50.98665 13.19969 35022 ft 508 kts 109°
2026-05-04 09:28 50.96659 13.30718 35021 ft 508 kts 109°
2026-05-04 09:28 50.94725 13.41489 35016 ft 508 kts 108°
2026-05-04 09:29 50.92819 13.52274 35016 ft 508 kts 109°
2026-05-04 09:29 50.90796 13.62981 35026 ft 507 kts 109°
2026-05-04 09:30 50.88769 13.73703 35022 ft 508 kts 109°
2026-05-04 09:30 50.86762 13.84421 35023 ft 508 kts 109°
2026-05-04 09:31 50.84606 13.95056 35012 ft 505 kts 117°
2026-05-04 09:31 50.81013 14.04457 35020 ft 497 kts 132°
2026-05-04 09:32 50.76263 14.12273 35024 ft 492 kts 139°
2026-05-04 09:34 50.56779 14.42776 35019 ft 497 kts 138°
2026-05-04 09:34 50.51873 14.50461 35024 ft 498 kts 138°
2026-05-04 09:35 50.46945 14.58154 35017 ft 499 kts 138°
2026-05-04 09:35 50.42019 14.65819 35022 ft 500 kts 138°
2026-05-04 09:37 50.22214 14.96396 35020 ft 501 kts 138°
2026-05-04 09:38 50.17244 15.04010 35015 ft 500 kts 138°
2026-05-04 09:38 50.12277 15.11596 35017 ft 499 kts 139°
2026-05-04 09:39 50.07304 15.19167 35014 ft 499 kts 139°
2026-05-04 09:39 50.02365 15.26665 35006 ft 498 kts 138°
2026-05-04 09:40 49.97401 15.34177 35006 ft 498 kts 139°
2026-05-04 09:40 49.92428 15.41680 35016 ft 497 kts 139°
2026-05-04 09:42 49.72555 15.71436 35025 ft 498 kts 138°
2026-05-04 09:43 49.67567 15.78850 35025 ft 499 kts 138°
2026-05-04 09:43 49.62557 15.86272 35029 ft 499 kts 139°
2026-05-04 09:44 49.57544 15.93679 35027 ft 500 kts 138°
2026-05-04 09:46 49.37371 16.23258 35039 ft 501 kts 138°
2026-05-04 09:46 49.32311 16.30622 35040 ft 501 kts 138°
2026-05-04 09:47 49.27277 16.37927 35037 ft 500 kts 138°
2026-05-04 09:49 49.07038 16.67080 35057 ft 500 kts 138°
2026-05-04 09:51 48.89355 16.92274 35037 ft 501 kts 138°
2026-05-04 09:51 48.84295 16.99438 35063 ft 502 kts 138°
2026-05-04 09:52 48.79245 17.06773 35041 ft 504 kts 134°
2026-05-04 09:52 48.74969 17.15209 35069 ft 505 kts 124°
2026-05-04 09:53 48.71123 17.24153 35078 ft 506 kts 124°
2026-05-04 09:53 48.67246 17.33056 35077 ft 506 kts 124°
2026-05-04 09:54 48.63888 17.40683 35134 ft 506 kts 124°
2026-05-04 09:54 48.61968 17.45020 35454 ft 503 kts 124°
2026-05-04 09:54 48.60029 17.49391 35728 ft 500 kts 124°
2026-05-04 09:55 48.56139 17.58141 35845 ft 503 kts 124°
2026-05-04 09:55 48.54190 17.62516 36035 ft 502 kts 124°
2026-05-04 09:55 48.52251 17.66862 36214 ft 500 kts 124°
2026-05-04 09:55 48.50307 17.71215 36365 ft 500 kts 124°
2026-05-04 09:56 48.49019 17.74096 36421 ft 500 kts 124°
2026-05-04 09:56 48.45115 17.82805 36635 ft 500 kts 124°
2026-05-04 09:56 48.43175 17.87124 36869 ft 497 kts 124°
2026-05-04 09:57 48.41239 17.91425 36986 ft 497 kts 124°
2026-05-04 09:57 48.37353 18.00036 37106 ft 494 kts 124°
2026-05-04 09:58 48.33514 18.08518 37065 ft 484 kts 124°
2026-05-04 09:58 48.29728 18.16857 37100 ft 488 kts 124°
2026-05-04 10:00 48.14274 18.50634 37100 ft 491 kts 124°
2026-05-04 10:04 47.87048 19.09139 37108 ft 490 kts 124°
2026-05-04 10:04 47.83127 19.17462 37141 ft 491 kts 124°
2026-05-04 10:05 47.79208 19.25755 37140 ft 492 kts 124°
2026-05-04 10:05 47.75259 19.34086 37153 ft 492 kts 124°
2026-05-04 10:06 47.71328 19.42356 37146 ft 492 kts 124°
2026-05-04 10:06 47.67359 19.50679 37162 ft 492 kts 124°
2026-05-04 10:08 47.53494 19.79557 37149 ft 491 kts 124°
2026-05-04 10:08 47.49539 19.87739 37150 ft 491 kts 124°
2026-05-04 10:09 47.45553 19.95963 37151 ft 491 kts 124°
2026-05-04 10:09 47.41586 20.04121 37165 ft 491 kts 124°
2026-05-04 10:10 47.37585 20.12325 37159 ft 491 kts 124°
2026-05-04 10:10 47.33584 20.20505 37159 ft 492 kts 124°
2026-05-04 10:11 47.29589 20.28647 37159 ft 492 kts 124°
2026-05-04 10:11 47.25561 20.36834 37162 ft 492 kts 124°
2026-05-04 10:12 47.21539 20.44984 37152 ft 492 kts 124°
2026-05-04 10:12 47.17537 20.53069 37159 ft 492 kts 124°
2026-05-04 10:13 47.13489 20.61224 37162 ft 492 kts 124°
2026-05-04 10:13 47.09466 20.69304 37163 ft 492 kts 124°
2026-05-04 10:14 47.05416 20.77416 37163 ft 493 kts 124°
2026-05-04 10:16 46.89137 21.09779 37164 ft 494 kts 124°
2026-05-04 10:16 46.85070 21.17808 37163 ft 494 kts 124°
2026-05-04 10:17 46.80970 21.25877 37182 ft 494 kts 124°
2026-05-04 10:19 46.65378 21.58660 37180 ft 490 kts 115°
2026-05-04 10:19 46.62172 21.67423 37159 ft 490 kts 115°
2026-05-04 10:20 46.58935 21.76173 37159 ft 490 kts 116°
2026-05-04 10:20 46.55693 21.84839 37156 ft 490 kts 116°
2026-05-04 10:21 46.52418 21.93548 37170 ft 490 kts 116°
2026-05-04 10:21 46.49153 22.02201 37153 ft 490 kts 116°
2026-05-04 10:22 46.44222 22.15218 37150 ft 490 kts 116°
2026-05-04 10:23 46.40948 22.23834 37157 ft 489 kts 116°
2026-05-04 10:25 46.27780 22.58200 37151 ft 488 kts 116°
2026-05-04 10:25 46.24464 22.66788 37126 ft 487 kts 116°
2026-05-04 10:26 46.21172 22.75288 37140 ft 487 kts 116°
2026-05-04 10:26 46.17857 22.83819 37137 ft 487 kts 116°
2026-05-04 10:27 46.14526 22.92361 37124 ft 487 kts 116°
2026-05-04 10:27 46.11222 23.00812 37126 ft 486 kts 116°
2026-05-04 10:28 46.07892 23.09300 37147 ft 484 kts 116°
2026-05-04 10:28 46.04589 23.17696 37123 ft 484 kts 117°
2026-05-04 10:29 46.01256 23.26141 37131 ft 483 kts 116°
2026-05-04 10:29 45.97949 23.34496 37122 ft 482 kts 116°
2026-05-04 10:30 45.94633 23.42846 37126 ft 482 kts 116°
2026-05-04 10:30 45.91307 23.51198 37123 ft 481 kts 117°
2026-05-04 10:31 45.87969 23.59554 37135 ft 481 kts 117°
2026-05-04 10:32 45.76284 23.88607 37149 ft 481 kts 117°
2026-05-04 10:33 45.72955 23.96828 37157 ft 481 kts 117°
2026-05-04 10:33 45.69594 24.05106 37124 ft 481 kts 117°
2026-05-04 10:34 45.66220 24.13390 37125 ft 481 kts 117°
2026-05-04 10:34 45.62863 24.21606 37121 ft 481 kts 118°
2026-05-04 10:35 45.59474 24.29876 37112 ft 481 kts 118°
2026-05-04 10:35 45.56094 24.38102 37108 ft 480 kts 118°
2026-05-04 10:36 45.52735 24.46252 37102 ft 479 kts 117°
2026-05-04 10:36 45.49341 24.54465 37100 ft 479 kts 118°
2026-05-04 10:37 45.45965 24.62607 37103 ft 478 kts 118°
2026-05-04 10:37 45.42569 24.70771 37096 ft 478 kts 118°
2026-05-04 10:39 45.30685 24.99169 37084 ft 478 kts 119°
2026-05-04 10:40 45.27268 25.07283 37075 ft 479 kts 119°
2026-05-04 10:40 45.23858 25.15355 37079 ft 478 kts 119°
2026-05-04 10:41 45.20426 25.23453 37068 ft 478 kts 119°
2026-05-04 10:41 45.16996 25.31526 37077 ft 476 kts 119°
2026-05-04 10:42 45.13584 25.39536 37082 ft 476 kts 120°
2026-05-04 10:42 45.10159 25.47550 37071 ft 475 kts 120°
2026-05-04 10:43 45.06738 25.55534 37075 ft 474 kts 120°
2026-05-04 10:45 44.93022 25.87316 37074 ft 474 kts 120°
2026-05-04 10:45 44.89595 25.95203 37076 ft 474 kts 120°
2026-05-04 10:46 44.86138 26.03136 37075 ft 474 kts 120°
2026-05-04 10:46 44.82695 26.11014 37075 ft 474 kts 120°
2026-05-04 10:47 44.79215 26.18956 37071 ft 475 kts 120°
2026-05-04 10:47 44.76322 26.25542 37085 ft 475 kts 120°
2026-05-04 10:49 44.62366 26.57096 37078 ft 475 kts 121°
2026-05-04 10:50 44.58856 26.64977 37083 ft 475 kts 121°
2026-05-04 10:52 44.44846 26.96222 37074 ft 473 kts 121°
2026-05-04 10:52 44.41334 27.04000 37073 ft 472 kts 121°
2026-05-04 10:54 44.27277 27.34930 37065 ft 471 kts 122°
2026-05-04 10:56 44.13192 27.65593 37061 ft 469 kts 122°
2026-05-04 10:57 44.09656 27.73240 37076 ft 469 kts 122°
2026-05-04 10:57 44.06122 27.80862 37070 ft 469 kts 122°
2026-05-04 10:58 44.02600 27.88439 37059 ft 469 kts 122°
2026-05-04 10:58 43.99045 27.96066 37062 ft 468 kts 122°
2026-05-04 10:59 43.95516 28.03619 37065 ft 468 kts 122°
2026-05-04 10:59 43.91961 28.11208 37042 ft 468 kts 122°
2026-05-04 11:00 43.88405 28.18779 37057 ft 467 kts 122°
2026-05-04 11:02 43.74208 28.48817 37040 ft 465 kts 122°
2026-05-04 11:05 43.48121 29.05057 37020 ft 465 kts 120°
2026-05-04 11:06 43.44610 29.12553 37030 ft 465 kts 120°
2026-05-04 11:06 43.41089 29.20050 37017 ft 466 kts 120°
2026-05-04 11:10 43.16296 29.72308 36982 ft 468 kts 121°
2026-05-04 11:12 43.01979 30.02072 36972 ft 469 kts 121°
2026-05-04 11:12 42.98376 30.09514 36966 ft 468 kts 121°
2026-05-04 11:13 42.94800 30.16883 36969 ft 468 kts 121°
2026-05-04 11:13 42.91188 30.24307 36956 ft 469 kts 121°
2026-05-04 11:14 42.87593 30.31681 36952 ft 469 kts 121°
2026-05-04 11:16 42.74019 30.61902 36960 ft 464 kts 105°
2026-05-04 11:16 42.72704 30.70442 36967 ft 460 kts 95°
2026-05-04 11:17 42.71882 30.79097 36944 ft 462 kts 95°
2026-05-04 11:19 42.69324 31.04489 36918 ft 464 kts 96°
2026-05-04 11:19 42.68422 31.13136 36923 ft 466 kts 96°
2026-05-04 11:20 42.67503 31.21891 36923 ft 468 kts 96°
2026-05-04 11:20 42.66574 31.30680 36886 ft 470 kts 96°
2026-05-04 11:22 42.62820 31.65532 36872 ft 464 kts 96°
2026-05-04 11:23 42.61869 31.74208 36878 ft 463 kts 96°
2026-05-04 11:25 42.58482 32.04463 36856 ft 465 kts 98°
2026-05-04 11:25 42.57418 32.13077 36862 ft 467 kts 97°
2026-05-04 11:27 42.52899 32.52483 36839 ft 471 kts 97°
2026-05-04 11:28 42.51871 32.61205 36839 ft 471 kts 97°
2026-05-04 11:28 42.50828 32.69993 36838 ft 471 kts 97°
2026-05-04 11:29 42.49780 32.78765 36840 ft 471 kts 97°
2026-05-04 11:29 42.48730 32.87494 36834 ft 472 kts 97°
2026-05-04 11:33 42.41208 33.48791 36836 ft 472 kts 98°
2026-05-04 11:33 42.40090 33.57554 36840 ft 472 kts 98°
2026-05-04 11:34 42.38975 33.66269 36844 ft 472 kts 98°
2026-05-04 11:34 42.37849 33.75027 36832 ft 472 kts 98°
2026-05-04 11:35 42.36720 33.83765 36831 ft 471 kts 99°
2026-05-04 11:35 42.35589 33.92455 36832 ft 471 kts 99°
2026-05-04 11:36 42.34453 34.01156 36847 ft 471 kts 99°
2026-05-04 11:36 42.33306 34.09896 36837 ft 471 kts 99°
2026-05-04 11:37 42.32156 34.18617 36835 ft 471 kts 99°
2026-05-04 11:37 42.31194 34.25865 36833 ft 471 kts 99°
2026-05-04 11:38 42.30037 34.34545 36848 ft 471 kts 99°
2026-05-04 11:38 42.28865 34.43256 36842 ft 472 kts 99°
2026-05-04 11:39 42.27667 34.51984 36833 ft 472 kts 100°
2026-05-04 11:41 42.23440 34.82478 36845 ft 473 kts 100°
2026-05-04 11:41 42.22227 34.91154 36839 ft 473 kts 100°
2026-05-04 11:42 42.21004 34.99883 36839 ft 473 kts 100°
2026-05-04 11:42 42.19773 35.08607 36836 ft 473 kts 101°
2026-05-04 11:43 42.19718 35.08998 36835 ft 473 kts 101°
2026-05-04 11:43 42.18645 35.16563 36843 ft 473 kts 101°
2026-05-04 11:44 42.17400 35.25291 36841 ft 473 kts 101°
2026-05-04 11:44 42.16157 35.33965 36844 ft 474 kts 101°
2026-05-04 11:45 42.14900 35.42687 36842 ft 474 kts 101°
2026-05-04 11:45 42.13633 35.51446 36831 ft 476 kts 101°
2026-05-04 11:46 42.12368 35.60162 36839 ft 477 kts 101°
2026-05-04 11:46 42.11084 35.68966 36837 ft 478 kts 101°
2026-05-04 11:47 42.09796 35.77756 36840 ft 479 kts 102°
2026-05-04 11:47 42.08503 35.86518 36835 ft 480 kts 102°
2026-05-04 11:48 42.07195 35.95335 36836 ft 481 kts 102°
2026-05-04 11:48 42.05878 36.04161 36837 ft 481 kts 102°
2026-05-04 11:49 42.04553 36.13001 36840 ft 481 kts 102°
2026-05-04 11:49 42.03227 36.21791 36840 ft 482 kts 102°
2026-05-04 11:50 42.01885 36.30641 36834 ft 482 kts 102°
2026-05-04 11:50 42.00536 36.39489 36830 ft 482 kts 103°
2026-05-04 11:51 41.99189 36.48274 36820 ft 482 kts 103°
2026-05-04 11:51 41.97826 36.57119 36830 ft 481 kts 103°
2026-05-04 11:52 41.96471 36.65863 36838 ft 481 kts 103°
2026-05-04 11:52 41.95100 36.74666 36836 ft 480 kts 103°
2026-05-04 11:53 41.93725 36.83449 36820 ft 480 kts 103°
2026-05-04 11:53 41.92345 36.92221 36835 ft 480 kts 103°
2026-05-04 11:55 41.90046 37.27944 36838 ft 484 kts 93°
2026-05-04 11:56 41.89913 37.36962 36832 ft 484 kts 94°
2026-05-04 11:56 41.89761 37.45998 36834 ft 484 kts 94°
2026-05-04 11:57 41.89601 37.55045 36833 ft 485 kts 94°
2026-05-04 11:57 41.89434 37.64132 36826 ft 486 kts 94°
2026-05-04 11:58 41.89262 37.73138 36833 ft 486 kts 94°
2026-05-04 11:58 41.89080 37.82277 36833 ft 487 kts 94°
2026-05-04 11:59 41.88894 37.91303 36821 ft 487 kts 95°
2026-05-04 11:59 41.88699 38.00404 36834 ft 487 kts 95°
2026-05-04 12:00 41.88496 38.09515 36832 ft 486 kts 95°
2026-05-04 12:00 41.88288 38.18527 36833 ft 486 kts 95°
2026-05-04 12:01 41.88072 38.27622 36836 ft 486 kts 95°
2026-05-04 12:02 41.87263 38.59231 36833 ft 485 kts 95°
2026-05-04 12:03 41.87016 38.68274 36827 ft 485 kts 95°
2026-05-04 12:03 41.86761 38.77319 36831 ft 485 kts 95°
2026-05-04 12:04 41.86499 38.86368 36817 ft 485 kts 96°
2026-05-04 12:04 41.86231 38.95420 36829 ft 485 kts 96°
2026-05-04 12:05 41.85954 39.04492 36829 ft 486 kts 96°
2026-05-04 12:05 41.85670 39.13559 36836 ft 487 kts 96°
2026-05-04 12:06 41.85380 39.22594 36828 ft 487 kts 96°
2026-05-04 12:06 41.85082 39.31693 36822 ft 487 kts 96°
2026-05-04 12:07 41.84776 39.40787 36834 ft 487 kts 96°
2026-05-04 12:07 41.84619 39.45387 36838 ft 487 kts 96°
2026-05-04 12:08 41.84493 39.49043 36836 ft 487 kts 96°
2026-05-04 12:08 41.84179 39.58129 36841 ft 488 kts 96°
2026-05-04 12:09 41.83867 39.67219 36828 ft 488 kts 96°
2026-05-04 12:09 41.83550 39.76300 36828 ft 487 kts 96°
2026-05-04 12:10 41.83226 39.85327 36848 ft 487 kts 97°
2026-05-04 12:10 41.82892 39.94412 36854 ft 487 kts 97°
2026-05-04 12:11 41.82553 40.03463 36847 ft 487 kts 97°
2026-05-04 12:11 41.82207 40.12546 36837 ft 487 kts 97°
2026-05-04 12:12 41.81834 40.21618 36938 ft 489 kts 97°
2026-05-04 12:12 41.81641 40.26157 37044 ft 488 kts 97°
2026-05-04 12:12 41.81445 40.30702 37203 ft 487 kts 97°
2026-05-04 12:14 41.79835 40.67023 37958 ft 488 kts 97°
2026-05-04 12:15 41.79621 40.71540 38199 ft 484 kts 98°
2026-05-04 12:15 41.79406 40.75960 38598 ft 478 kts 98°
2026-05-04 12:15 41.79187 40.80396 38769 ft 476 kts 98°
2026-05-04 12:15 41.78965 40.84832 38775 ft 475 kts 98°
2026-05-04 12:16 41.78522 40.93632 38844 ft 470 kts 98°
2026-05-04 12:16 41.78078 41.02345 38858 ft 472 kts 98°
2026-05-04 12:17 41.77623 41.11135 38872 ft 474 kts 98°
2026-05-04 12:17 41.77160 41.19978 38875 ft 476 kts 98°
2026-05-04 12:18 41.76689 41.28855 38889 ft 478 kts 98°
2026-05-04 12:18 41.76213 41.37699 38877 ft 479 kts 98°
2026-05-04 12:19 41.75726 41.46621 38901 ft 480 kts 98°
2026-05-04 12:19 41.75233 41.55509 38898 ft 481 kts 98°
2026-05-04 12:20 41.74730 41.64458 38916 ft 482 kts 98°
2026-05-04 12:20 41.74217 41.73468 38901 ft 483 kts 98°
2026-05-04 12:21 41.73703 41.82381 38886 ft 482 kts 99°
2026-05-04 12:21 41.73177 41.91338 38874 ft 481 kts 99°
2026-05-04 12:22 41.72650 42.00263 38848 ft 480 kts 99°
2026-05-04 12:22 41.72113 42.09115 38856 ft 479 kts 100°
2026-05-04 12:23 41.71247 42.17941 38842 ft 477 kts 103°
2026-05-04 12:23 41.70260 42.26684 38812 ft 477 kts 104°
2026-05-04 12:24 41.69264 42.35501 38819 ft 480 kts 104°
2026-05-04 12:24 41.68443 42.42858 38790 ft 481 kts 104°
2026-05-04 12:25 41.67298 42.53181 38793 ft 482 kts 104°
2026-05-04 12:25 41.66474 42.60573 38775 ft 482 kts 104°
2026-05-04 12:26 41.65479 42.69437 38777 ft 480 kts 104°
2026-05-04 12:26 41.64478 42.78278 38774 ft 480 kts 104°
2026-05-04 12:27 41.63469 42.87094 38761 ft 482 kts 104°
2026-05-04 12:27 41.62453 42.95922 38745 ft 483 kts 105°
2026-05-04 12:28 41.61423 43.04828 38751 ft 485 kts 105°
2026-05-04 12:28 41.60379 43.13765 38751 ft 485 kts 105°
2026-05-04 12:29 41.59339 43.22641 38766 ft 486 kts 105°
2026-05-04 12:29 41.58283 43.31585 38743 ft 486 kts 105°
2026-05-04 12:30 41.57227 43.40457 38771 ft 486 kts 105°
2026-05-04 12:30 41.56159 43.49370 38795 ft 486 kts 105°
2026-05-04 12:31 41.55080 43.58314 38806 ft 486 kts 105°
2026-05-04 12:31 41.54002 43.67190 38818 ft 487 kts 105°
2026-05-04 12:32 41.52367 43.80541 38852 ft 486 kts 105°
2026-05-04 12:33 41.52225 43.81697 38851 ft 486 kts 105°
2026-05-04 12:33 41.51344 43.88831 38858 ft 487 kts 105°
2026-05-04 12:34 41.50231 43.97782 38864 ft 489 kts 105°
2026-05-04 12:34 41.49114 44.06711 38868 ft 490 kts 105°
2026-05-04 12:35 41.47984 44.15690 38880 ft 492 kts 105°
2026-05-04 12:35 41.46843 44.24698 38896 ft 493 kts 105°
2026-05-04 12:36 41.45686 44.33762 38888 ft 495 kts 105°
2026-05-04 12:36 41.44536 44.42737 38905 ft 494 kts 105°
2026-05-04 12:37 41.43366 44.51790 38900 ft 495 kts 105°
2026-05-04 12:37 41.42191 44.60840 38906 ft 495 kts 105°
2026-05-04 12:38 41.41015 44.69827 38899 ft 494 kts 105°
2026-05-04 12:38 41.39828 44.78845 38897 ft 494 kts 105°
2026-05-04 12:39 41.38633 44.87868 38880 ft 493 kts 106°
2026-05-04 12:39 41.37433 44.96879 38887 ft 493 kts 106°
2026-05-04 12:40 41.36233 45.05809 38888 ft 493 kts 107°
2026-05-04 12:40 41.34413 45.14522 38880 ft 485 kts 115°
2026-05-04 12:41 41.32172 45.23007 38864 ft 485 kts 115°
2026-05-04 12:41 41.29968 45.31438 38879 ft 486 kts 115°
2026-05-04 12:42 41.27766 45.39967 38859 ft 487 kts 115°
2026-05-04 12:42 41.25562 45.48510 38867 ft 488 kts 115°
2026-05-04 12:43 41.23355 45.57021 38857 ft 489 kts 115°
2026-05-04 12:43 41.21124 45.65588 38855 ft 490 kts 115°
2026-05-04 12:44 41.18880 45.74098 38861 ft 491 kts 116°
2026-05-04 12:44 41.16601 45.82670 38841 ft 492 kts 116°
2026-05-04 12:45 41.14316 45.91248 38840 ft 492 kts 116°
2026-05-04 12:45 41.12041 45.99770 38863 ft 493 kts 116°
2026-05-04 12:46 41.09745 46.08340 38843 ft 493 kts 116°
2026-05-04 12:46 41.07450 46.16883 38847 ft 493 kts 116°
2026-05-04 12:47 41.05133 46.25480 38853 ft 494 kts 116°
2026-05-04 12:47 41.02824 46.34049 38857 ft 495 kts 116°
2026-05-04 12:48 41.00532 46.42655 38851 ft 496 kts 115°
2026-05-04 12:48 40.98239 46.51255 38837 ft 495 kts 115°
2026-05-04 12:49 40.95951 46.59788 38858 ft 494 kts 116°
2026-05-04 12:49 40.93646 46.68347 38856 ft 493 kts 116°
2026-05-04 12:50 40.91334 46.76906 38838 ft 493 kts 116°
2026-05-04 12:50 40.89020 46.85431 38851 ft 492 kts 116°
2026-05-04 12:51 40.86691 46.93909 38864 ft 492 kts 116°
2026-05-04 12:51 40.84343 47.02429 38861 ft 493 kts 116°
2026-05-04 12:52 40.81991 47.10954 38851 ft 493 kts 116°
2026-05-04 12:52 40.79643 47.19430 38854 ft 495 kts 116°
2026-05-04 12:53 40.77265 47.27982 38871 ft 496 kts 116°
2026-05-04 12:53 40.74881 47.36543 38832 ft 498 kts 116°
2026-05-04 12:54 40.72489 47.45080 38858 ft 500 kts 116°
2026-05-04 12:54 40.70055 47.53696 38860 ft 501 kts 116°
2026-05-04 12:55 40.67609 47.62337 38858 ft 503 kts 117°
2026-05-04 12:55 40.65154 47.70992 38856 ft 504 kts 117°
2026-05-04 12:56 40.62713 47.79569 38852 ft 503 kts 117°
2026-05-04 12:56 40.60253 47.88202 38858 ft 503 kts 115°
2026-05-04 12:57 40.58648 47.97264 38837 ft 513 kts 101°
2026-05-04 12:57 40.58505 48.06651 38849 ft 519 kts 90°
2026-05-04 12:58 40.58554 48.07739 38828 ft 519 kts 90°
2026-05-04 12:58 40.58871 48.15492 38854 ft 518 kts 91°
2026-05-04 12:59 40.59137 48.24968 38850 ft 517 kts 92°
2026-05-04 12:59 40.59377 48.34393 38853 ft 517 kts 92°
2026-05-04 13:00 40.59618 48.43874 38843 ft 518 kts 92°
2026-05-04 13:00 40.59855 48.53341 38833 ft 517 kts 91°
2026-05-04 13:01 40.60085 48.62765 38843 ft 517 kts 92°
2026-05-04 13:01 40.60309 48.72221 38834 ft 517 kts 92°
2026-05-04 13:02 40.60521 48.81692 38830 ft 517 kts 92°
2026-05-04 13:02 40.60727 48.91108 38824 ft 517 kts 92°
2026-05-04 13:03 40.60927 49.00603 38802 ft 517 kts 91°
2026-05-04 13:03 40.61117 49.10017 38816 ft 518 kts 92°
2026-05-04 13:04 40.61303 49.19518 38832 ft 519 kts 92°
2026-05-04 13:04 40.61718 49.29050 38826 ft 522 kts 88°
2026-05-04 13:05 40.62343 49.38524 38830 ft 523 kts 88°
2026-05-04 13:05 40.62943 49.48097 38832 ft 524 kts 89°
2026-05-04 13:06 40.63485 49.57636 38818 ft 524 kts 89°
2026-05-04 13:06 40.64004 49.67228 38836 ft 524 kts 89°
2026-05-04 13:07 40.64516 49.76790 38832 ft 524 kts 89°
2026-05-04 13:07 40.65025 49.86373 38831 ft 524 kts 89°
2026-05-04 13:08 40.65527 49.95970 38827 ft 524 kts 89°
2026-05-04 13:08 40.66018 50.05501 38827 ft 524 kts 89°
2026-05-04 13:09 40.66503 50.15088 38816 ft 523 kts 89°
2026-05-04 13:09 40.66977 50.24600 38828 ft 523 kts 89°
2026-05-04 13:10 40.67445 50.34160 38830 ft 523 kts 89°
2026-05-04 13:10 40.67908 50.43752 38834 ft 523 kts 89°
2026-05-04 13:11 40.68360 50.53285 38838 ft 523 kts 89°
2026-05-04 13:11 40.68797 50.62677 38843 ft 523 kts 89°
2026-05-04 13:12 40.69233 50.72200 38822 ft 523 kts 89°
2026-05-04 13:12 40.69665 50.81783 38838 ft 523 kts 89°
2026-05-04 13:13 40.70087 50.91348 38846 ft 522 kts 89°
2026-05-04 13:13 40.70500 51.00871 38854 ft 522 kts 89°
2026-05-04 13:14 40.70906 51.10435 38861 ft 521 kts 89°
2026-05-04 13:14 40.71303 51.19943 38858 ft 521 kts 89°
2026-05-04 13:15 40.71627 51.27875 38856 ft 521 kts 89°
2026-05-04 13:15 40.72010 51.37398 38851 ft 520 kts 89°
2026-05-04 13:16 40.72390 51.46933 38856 ft 520 kts 88°
2026-05-04 13:16 40.73438 51.56326 38860 ft 521 kts 78°
2026-05-04 13:17 40.75044 51.65679 38861 ft 522 kts 78°
2026-05-04 13:17 40.76630 51.75011 38864 ft 523 kts 78°
2026-05-04 13:18 40.78174 51.84402 38867 ft 523 kts 78°
2026-05-04 13:18 40.79684 51.93740 38862 ft 523 kts 78°
2026-05-04 13:19 40.81197 52.03144 38860 ft 523 kts 78°
2026-05-04 13:19 40.82707 52.12562 38845 ft 522 kts 78°
2026-05-04 13:20 40.84203 52.21934 38868 ft 522 kts 78°
2026-05-04 13:20 40.85689 52.31300 38851 ft 523 kts 78°
2026-05-04 13:21 40.87176 52.40722 38859 ft 523 kts 78°
2026-05-04 13:21 40.88646 52.50090 38874 ft 523 kts 78°
2026-05-04 13:22 40.90100 52.59535 38873 ft 523 kts 81°
2026-05-04 13:22 40.90780 52.69097 38874 ft 522 kts 88°
2026-05-04 13:23 40.90852 52.71061 38859 ft 523 kts 88°
2026-05-04 13:23 40.91094 52.77948 38859 ft 523 kts 88°
2026-05-04 13:24 40.91469 52.87571 38870 ft 523 kts 88°
2026-05-04 13:24 40.91875 52.97139 38865 ft 524 kts 88°
2026-05-04 13:25 40.92478 53.11622 38861 ft 524 kts 88°
2026-05-04 13:25 40.92852 53.21200 38854 ft 524 kts 88°
2026-05-04 13:26 40.93210 53.30821 38854 ft 523 kts 88°
2026-05-04 13:26 40.93562 53.40464 38846 ft 523 kts 88°
2026-05-04 13:27 40.93904 53.50017 38852 ft 522 kts 88°
2026-05-04 13:27 40.94241 53.59606 38844 ft 521 kts 88°
2026-05-04 13:28 40.94569 53.69150 38843 ft 521 kts 88°
2026-05-04 13:28 40.94889 53.78716 38844 ft 520 kts 88°
2026-05-04 13:29 40.95202 53.88294 38842 ft 520 kts 88°
2026-05-04 13:29 40.95506 53.97856 38838 ft 520 kts 88°
2026-05-04 13:30 40.95800 54.07374 38841 ft 520 kts 88°
2026-05-04 13:30 40.96089 54.16964 38831 ft 521 kts 88°
2026-05-04 13:31 40.96370 54.26527 38843 ft 522 kts 88°
2026-05-04 13:31 40.96645 54.36182 38839 ft 524 kts 88°
2026-05-04 13:32 40.96910 54.45784 38839 ft 525 kts 88°
2026-05-04 13:32 40.97170 54.55470 38836 ft 526 kts 88°
2026-05-04 13:33 40.97422 54.65168 38845 ft 526 kts 89°
2026-05-04 13:33 40.97664 54.74803 38822 ft 526 kts 88°
2026-05-04 13:34 40.97901 54.84501 38838 ft 526 kts 88°
2026-05-04 13:34 40.98127 54.94201 38838 ft 527 kts 89°
2026-05-04 13:35 40.98441 55.08697 38840 ft 526 kts 89°
2026-05-04 13:36 40.98642 55.18382 38829 ft 526 kts 89°
2026-05-04 13:36 40.98835 55.28061 38829 ft 526 kts 89°
2026-05-04 13:37 40.99019 55.37703 38816 ft 525 kts 89°
2026-05-04 13:37 40.99196 55.47386 38834 ft 525 kts 89°
2026-05-04 13:38 40.99364 55.56992 38826 ft 524 kts 89°
2026-05-04 13:38 40.99524 55.66640 38825 ft 524 kts 89°
2026-05-04 13:39 40.99678 55.76294 38831 ft 523 kts 89°
2026-05-04 13:39 40.99830 55.85945 38837 ft 523 kts 89°
2026-05-04 13:40 40.99983 55.95526 38828 ft 523 kts 89°
2026-05-04 13:40 41.00128 56.05167 38828 ft 523 kts 89°
2026-05-04 13:41 41.00265 56.14805 38836 ft 523 kts 89°
2026-05-04 13:41 41.00391 56.24368 38841 ft 523 kts 89°
2026-05-04 13:42 41.00568 56.38823 38847 ft 522 kts 89°
2026-05-04 13:42 41.00681 56.48392 38845 ft 522 kts 88°
2026-05-04 13:43 41.01458 56.57971 38859 ft 521 kts 80°
2026-05-04 13:43 41.02653 56.67444 38851 ft 521 kts 80°
2026-05-04 13:44 41.03824 56.76875 38865 ft 521 kts 81°
2026-05-04 13:44 41.04959 56.86398 38864 ft 521 kts 81°
2026-05-04 13:45 41.06067 56.95893 38873 ft 521 kts 81°
2026-05-04 13:45 41.07161 57.05340 38869 ft 521 kts 81°
2026-05-04 13:46 41.08259 57.14863 38871 ft 521 kts 81°
2026-05-04 13:46 41.09341 57.24309 38872 ft 521 kts 81°
2026-05-04 13:47 41.10421 57.33814 38884 ft 520 kts 81°
2026-05-04 13:47 41.11083 57.39669 38873 ft 520 kts 81°
2026-05-04 13:48 41.11381 57.42320 38876 ft 520 kts 81°
2026-05-04 13:48 41.12438 57.51753 38881 ft 519 kts 82°
2026-05-04 13:49 41.13489 57.61210 38872 ft 519 kts 82°
2026-05-04 13:49 41.14534 57.70681 38882 ft 519 kts 82°
2026-05-04 13:50 41.15571 57.80156 38893 ft 519 kts 82°
2026-05-04 13:50 41.16604 57.89662 38893 ft 520 kts 82°
2026-05-04 13:51 41.17624 57.99133 38894 ft 520 kts 82°
2026-05-04 13:51 41.18645 58.08666 38899 ft 521 kts 82°
2026-05-04 13:52 41.20146 58.22894 38899 ft 521 kts 82°
2026-05-04 13:53 41.21146 58.32474 38910 ft 522 kts 82°
2026-05-04 13:53 41.22134 58.42022 38906 ft 522 kts 82°
2026-05-04 13:54 41.23599 58.56306 38896 ft 521 kts 82°
2026-05-04 13:55 41.25046 58.70604 38916 ft 521 kts 82°
2026-05-04 13:55 41.26479 58.84937 38923 ft 521 kts 82°
2026-05-04 13:56 41.27421 58.94464 38926 ft 521 kts 82°
2026-05-04 13:57 41.28825 59.08820 38932 ft 522 kts 83°
2026-05-04 13:58 41.30667 59.27943 38939 ft 521 kts 83°
2026-05-04 13:58 41.32026 59.42276 38946 ft 521 kts 83°
2026-05-04 13:59 41.32925 59.51858 38941 ft 521 kts 83°
2026-05-04 14:00 41.34357 59.66205 38940 ft 520 kts 78°
2026-05-04 14:00 41.37481 59.79959 38942 ft 519 kts 70°
2026-05-04 14:01 41.39782 59.89094 38953 ft 519 kts 70°
2026-05-04 14:02 41.43123 60.02801 38952 ft 520 kts 71°
2026-05-04 14:02 41.45328 60.11935 38950 ft 520 kts 71°
2026-05-04 14:03 41.47542 60.21120 38950 ft 520 kts 71°
2026-05-04 14:03 41.49352 60.28776 38947 ft 520 kts 71°
2026-05-04 14:04 41.52579 60.42602 38945 ft 520 kts 71°
2026-05-04 14:04 41.55075 60.53317 38939 ft 519 kts 71°
2026-05-04 14:05 41.57924 60.65596 38941 ft 519 kts 71°
2026-05-04 14:06 41.60228 60.74739 38939 ft 518 kts 69°
2026-05-04 14:06 41.62673 60.83790 38944 ft 517 kts 69°
2026-05-04 14:07 41.65085 60.92823 38955 ft 517 kts 69°
2026-05-04 14:07 41.67465 61.01920 38959 ft 517 kts 69°
2026-05-04 14:08 41.69808 61.10950 38955 ft 517 kts 69°
2026-05-04 14:08 41.72162 61.20055 38956 ft 517 kts 69°
2026-05-04 14:09 41.75680 61.33705 38956 ft 517 kts 69°
2026-05-04 14:10 41.79176 61.47345 38957 ft 517 kts 69°
2026-05-04 14:10 41.81506 61.56482 38960 ft 517 kts 69°
2026-05-04 14:11 41.83825 61.65610 38956 ft 517 kts 70°
2026-05-04 14:11 41.87281 61.79288 38952 ft 517 kts 70°
2026-05-04 14:12 41.89552 61.88382 38953 ft 516 kts 70°
2026-05-04 14:13 41.91281 61.95329 38945 ft 515 kts 70°
2026-05-04 14:13 41.92829 62.01557 38950 ft 515 kts 70°
2026-05-04 14:14 41.95097 62.10711 38948 ft 514 kts 70°
2026-05-04 14:14 41.98477 62.24400 38947 ft 513 kts 70°
2026-05-04 14:15 42.02922 62.42524 38950 ft 510 kts 70°
2026-05-04 14:16 42.06231 62.56112 38950 ft 510 kts 70°
2026-05-04 14:17 42.09537 62.69751 38950 ft 511 kts 70°
2026-05-04 14:18 42.12829 62.83382 38948 ft 512 kts 70°
2026-05-04 14:19 42.17196 63.01651 38960 ft 514 kts 70°
2026-05-04 14:19 42.19381 63.10782 38966 ft 514 kts 70°
2026-05-04 14:20 42.21576 63.19965 38959 ft 514 kts 70°
2026-05-04 14:20 42.23759 63.29146 38967 ft 513 kts 70°
2026-05-04 14:21 42.27002 63.42862 38979 ft 512 kts 70°
2026-05-04 14:21 42.29162 63.52046 38972 ft 511 kts 70°
2026-05-04 14:22 42.31293 63.61141 38976 ft 510 kts 70°
2026-05-04 14:22 42.33424 63.70272 38981 ft 509 kts 70°
2026-05-04 14:23 42.36611 63.84001 38977 ft 508 kts 70°
2026-05-04 14:24 42.38708 63.93078 38979 ft 508 kts 70°
2026-05-04 14:24 42.40804 64.02204 38990 ft 508 kts 71°
2026-05-04 14:25 42.42828 64.11311 38984 ft 508 kts 71°
2026-05-04 14:25 42.45868 64.25052 38986 ft 507 kts 71°
2026-05-04 14:26 42.47931 64.34227 38991 ft 507 kts 71°
2026-05-04 14:26 42.49978 64.43313 38988 ft 508 kts 71°
2026-05-04 14:27 42.52031 64.52488 38988 ft 508 kts 71°
2026-05-04 14:27 42.54074 64.61674 38989 ft 508 kts 71°
2026-05-04 14:28 42.56096 64.70804 38981 ft 508 kts 71°
2026-05-04 14:28 42.58126 64.80014 38989 ft 507 kts 71°
2026-05-04 14:29 42.62141 64.98340 39004 ft 507 kts 71°
2026-05-04 14:30 42.64129 65.07471 38986 ft 506 kts 71°
2026-05-04 14:31 42.67108 65.21232 38984 ft 505 kts 71°
2026-05-04 14:32 42.71034 65.39506 38984 ft 504 kts 71°
2026-05-04 14:32 42.72990 65.48667 38981 ft 504 kts 71°
2026-05-04 14:33 42.74937 65.57825 38983 ft 504 kts 71°
2026-05-04 14:33 42.76877 65.66997 38995 ft 503 kts 71°
2026-05-04 14:34 42.78798 65.76108 38981 ft 503 kts 71°
2026-05-04 14:34 42.80733 65.85259 38988 ft 502 kts 71°
2026-05-04 14:35 42.82673 65.94419 38989 ft 502 kts 71°
2026-05-04 14:35 42.84603 66.03581 38984 ft 502 kts 71°
2026-05-04 14:36 42.86505 66.12686 38976 ft 502 kts 72°
2026-05-04 14:36 42.88381 66.21881 38980 ft 501 kts 72°
2026-05-04 14:37 42.90226 66.31002 38994 ft 501 kts 72°
2026-05-04 14:37 42.92079 66.40178 38984 ft 500 kts 72°
2026-05-04 14:38 42.92420 66.41870 38979 ft 500 kts 72°
2026-05-04 14:38 42.93794 66.48695 38982 ft 500 kts 72°
2026-05-04 14:39 42.95629 66.57845 38984 ft 499 kts 72°
2026-05-04 14:39 42.97448 66.66959 38993 ft 499 kts 72°
2026-05-04 14:40 43.00177 66.80702 38983 ft 498 kts 73°
2026-05-04 14:40 43.01978 66.89783 38989 ft 497 kts 73°
2026-05-04 14:41 43.03784 66.98921 39000 ft 497 kts 73°
2026-05-04 14:42 43.07352 67.17111 38996 ft 496 kts 73°
2026-05-04 14:42 43.09124 67.26209 39009 ft 495 kts 73°
2026-05-04 14:43 43.10893 67.35333 38999 ft 495 kts 73°
2026-05-04 14:43 43.12642 67.44390 39001 ft 494 kts 73°
2026-05-04 14:44 43.14387 67.53501 39005 ft 493 kts 73°
2026-05-04 14:44 43.16110 67.62547 39005 ft 493 kts 73°
2026-05-04 14:45 43.17837 67.71651 39008 ft 493 kts 73°
2026-05-04 14:45 43.19549 67.80714 39009 ft 493 kts 73°
2026-05-04 14:46 43.21270 67.89827 39009 ft 493 kts 73°
2026-05-04 14:46 43.22983 67.98929 39015 ft 493 kts 73°
2026-05-04 14:47 43.24682 68.08002 39012 ft 492 kts 73°
2026-05-04 14:47 43.26381 68.17119 39012 ft 492 kts 74°
2026-05-04 14:48 43.28059 68.26172 39022 ft 492 kts 74°
2026-05-04 14:48 43.29740 68.35280 39022 ft 491 kts 75°
2026-05-04 14:49 43.31008 68.44514 39025 ft 491 kts 79°
2026-05-04 14:49 43.32090 68.53732 39020 ft 491 kts 79°
2026-05-04 14:50 43.33151 68.63019 39025 ft 492 kts 82°
2026-05-04 14:50 43.33910 68.72312 39026 ft 492 kts 83°
2026-05-04 14:51 43.34643 68.81683 39030 ft 492 kts 82°
2026-05-04 14:51 43.35413 68.90992 39032 ft 493 kts 82°
2026-05-04 14:52 43.36201 69.00385 39046 ft 493 kts 82°
2026-05-04 14:52 43.36978 69.09774 39043 ft 494 kts 82°
2026-05-04 14:53 43.37742 69.19106 39045 ft 494 kts 82°
2026-05-04 14:53 43.38550 69.28498 39043 ft 494 kts 82°
2026-05-04 14:54 43.39362 69.37829 39049 ft 494 kts 82°
2026-05-04 14:54 43.40166 69.47226 39050 ft 494 kts 82°
2026-05-04 14:55 43.40826 69.55046 39045 ft 493 kts 82°
2026-05-04 14:55 43.41736 69.65953 39046 ft 493 kts 82°
2026-05-04 14:56 43.42382 69.73754 39049 ft 493 kts 83°
2026-05-04 14:56 43.43301 69.84673 39048 ft 493 kts 82°
2026-05-04 14:57 43.43970 69.92484 39052 ft 493 kts 82°
2026-05-04 14:57 43.44764 70.01854 39067 ft 493 kts 82°
2026-05-04 14:58 43.45549 70.11246 39052 ft 493 kts 83°
2026-05-04 14:58 43.46321 70.20613 39049 ft 493 kts 83°
2026-05-04 14:59 43.47088 70.29999 39048 ft 493 kts 83°
2026-05-04 15:00 43.48221 70.44052 39047 ft 494 kts 83°
2026-05-04 15:00 43.48970 70.53459 39050 ft 494 kts 83°
2026-05-04 15:01 43.50079 70.67572 39055 ft 495 kts 83°
2026-05-04 15:01 43.50811 70.77012 39058 ft 496 kts 83°
2026-05-04 15:02 43.51539 70.86490 39058 ft 496 kts 83°
2026-05-04 15:02 43.52092 70.93829 39065 ft 497 kts 83°
2026-05-04 15:03 43.52195 70.95216 39067 ft 497 kts 83°
2026-05-04 15:03 43.52897 71.04707 39072 ft 497 kts 83°
2026-05-04 15:04 43.53590 71.14158 39062 ft 497 kts 84°
2026-05-04 15:04 43.54277 71.23643 39066 ft 497 kts 84°
2026-05-04 15:05 43.54959 71.33146 39066 ft 497 kts 84°
2026-05-04 15:05 43.55631 71.42635 39068 ft 497 kts 84°
2026-05-04 15:06 43.56292 71.52073 39074 ft 497 kts 84°
2026-05-04 15:07 43.57275 71.66325 39066 ft 497 kts 84°
2026-05-04 15:07 43.57916 71.75761 39073 ft 496 kts 84°
2026-05-04 15:08 43.58552 71.85243 39080 ft 496 kts 84°
2026-05-04 15:08 43.59181 71.94743 39077 ft 496 kts 84°
2026-05-04 15:09 43.59798 72.04171 39082 ft 497 kts 84°
2026-05-04 15:09 43.60411 72.13670 39081 ft 497 kts 84°
2026-05-04 15:10 43.61318 72.27956 39089 ft 497 kts 85°
2026-05-04 15:11 43.62207 72.42232 39084 ft 498 kts 85°
2026-05-04 15:11 43.62791 72.51767 39083 ft 499 kts 85°
2026-05-04 15:12 43.63367 72.61312 39090 ft 499 kts 85°
2026-05-04 15:12 43.63933 72.70835 39088 ft 499 kts 85°
2026-05-04 15:13 43.64495 72.80412 39087 ft 500 kts 85°
2026-05-04 15:13 43.65044 72.89914 39088 ft 500 kts 85°
2026-05-04 15:14 43.65591 72.99497 39092 ft 500 kts 85°
2026-05-04 15:14 43.66128 73.09065 39088 ft 499 kts 85°
2026-05-04 15:15 43.66654 73.18584 39089 ft 499 kts 85°
2026-05-04 15:15 43.67177 73.28182 39086 ft 499 kts 85°
2026-05-04 15:16 43.67943 73.42539 39088 ft 499 kts 86°
2026-05-04 15:17 43.68689 73.56850 39089 ft 499 kts 86°
2026-05-04 15:17 43.69420 73.71181 39086 ft 499 kts 86°
2026-05-04 15:18 43.69524 73.80786 39095 ft 499 kts 92°
2026-05-04 15:19 43.69040 73.95205 39093 ft 500 kts 93°
2026-05-04 15:19 43.68609 74.09615 39089 ft 502 kts 92°
2026-05-04 15:20 43.68322 74.19215 39101 ft 503 kts 93°
2026-05-04 15:20 43.68027 74.28881 39100 ft 504 kts 93°
2026-05-04 15:21 43.67730 74.38594 39102 ft 505 kts 93°
2026-05-04 15:22 43.67271 74.53107 39109 ft 506 kts 93°
2026-05-04 15:22 43.66789 74.67693 39109 ft 507 kts 93°
2026-05-04 15:23 43.66457 74.77431 39109 ft 506 kts 93°
2026-05-04 15:23 43.66119 74.87115 39113 ft 506 kts 93°
2026-05-04 15:24 43.65417 75.06481 39112 ft 506 kts 93°
2026-05-04 15:25 43.65053 75.16213 39106 ft 506 kts 93°
2026-05-04 15:26 43.64494 75.30718 39109 ft 506 kts 94°
2026-05-04 15:26 43.63914 75.45299 39106 ft 507 kts 94°
2026-05-04 15:27 43.63315 75.59824 39104 ft 507 kts 94°
2026-05-04 15:28 43.63132 75.64098 39106 ft 508 kts 94°
2026-05-04 15:29 43.62499 75.78646 39100 ft 508 kts 94°
2026-05-04 15:30 43.60951 76.12707 39101 ft 508 kts 94°
2026-05-04 15:31 43.60259 76.27259 39100 ft 508 kts 95°
2026-05-04 15:32 43.59928 76.51564 39098 ft 507 kts 91°
2026-05-04 15:34 43.59830 76.75902 39096 ft 508 kts 91°
2026-05-04 15:34 43.59683 76.90550 39086 ft 508 kts 92°
2026-05-04 15:35 43.59504 77.05127 39085 ft 509 kts 91°
2026-05-04 15:36 43.59326 77.19790 39085 ft 508 kts 93°
2026-05-04 15:36 43.58980 77.29500 39087 ft 508 kts 94°
2026-05-04 15:37 43.58609 77.39252 39079 ft 508 kts 94°
2026-05-04 15:37 43.58267 77.48986 39085 ft 508 kts 94°
2026-05-04 15:38 43.58029 77.58712 39078 ft 508 kts 92°
2026-05-04 15:38 43.57946 77.68466 39070 ft 508 kts 92°
2026-05-04 15:39 43.57842 77.78218 39077 ft 508 kts 92°
2026-05-04 15:40 43.57624 77.92804 39076 ft 508 kts 92°
2026-05-04 15:40 43.57467 78.02568 39063 ft 508 kts 92°
2026-05-04 15:41 43.57305 78.12324 39054 ft 509 kts 92°
2026-05-04 15:41 43.57139 78.22105 39055 ft 509 kts 92°
2026-05-04 15:42 43.56968 78.31830 39046 ft 510 kts 92°
2026-05-04 15:42 43.56786 78.41626 39040 ft 510 kts 92°
2026-05-04 15:43 43.56597 78.51376 39049 ft 510 kts 93°
2026-05-04 15:43 43.56398 78.61177 39049 ft 510 kts 93°
2026-05-04 15:44 43.56192 78.70898 39039 ft 511 kts 93°
2026-05-04 15:44 43.55977 78.80722 39031 ft 511 kts 93°
2026-05-04 15:45 43.55755 78.90464 39038 ft 511 kts 93°
2026-05-04 15:45 43.55562 78.98612 39032 ft 511 kts 93°
2026-05-04 15:46 43.55323 79.08413 39030 ft 512 kts 94°
2026-05-04 15:46 43.55075 79.18252 39042 ft 513 kts 94°
2026-05-04 15:47 43.54818 79.28112 39037 ft 514 kts 94°
2026-05-04 15:47 43.54552 79.37930 39034 ft 516 kts 94°
2026-05-04 15:48 43.54275 79.47843 39038 ft 516 kts 94°
2026-05-04 15:48 43.53851 79.62535 39047 ft 512 kts 94°
2026-05-04 15:49 43.53557 79.72340 39048 ft 510 kts 94°
2026-05-04 15:49 43.53257 79.82101 39063 ft 508 kts 94°
2026-05-04 15:50 43.52946 79.91772 39066 ft 507 kts 94°
2026-05-04 15:50 43.52622 80.01515 39070 ft 507 kts 94°
2026-05-04 15:51 43.52295 80.11172 39074 ft 508 kts 94°
2026-05-04 15:51 43.51957 80.20914 39071 ft 510 kts 94°
2026-05-04 15:52 43.51610 80.30688 39079 ft 511 kts 94°
2026-05-04 15:52 43.51301 80.39185 39080 ft 513 kts 95°
2026-05-04 15:53 43.51272 80.39969 39077 ft 513 kts 94°
2026-05-04 15:53 43.50907 80.49811 39085 ft 514 kts 95°
2026-05-04 15:54 43.50534 80.59605 39085 ft 515 kts 95°
2026-05-04 15:54 43.50151 80.69484 39083 ft 516 kts 95°
2026-05-04 15:55 43.49825 80.79381 39078 ft 517 kts 93°
2026-05-04 15:55 43.49696 80.89268 39139 ft 516 kts 92°
2026-05-04 15:56 43.49589 80.99060 39168 ft 515 kts 92°
2026-05-04 15:56 43.49442 81.08990 39170 ft 516 kts 92°
2026-05-04 15:57 43.49268 81.18813 39181 ft 516 kts 93°
2026-05-04 15:57 43.49081 81.28712 39170 ft 517 kts 93°
2026-05-04 15:58 43.48888 81.38582 39159 ft 516 kts 93°
2026-05-04 15:58 43.48687 81.48466 39164 ft 515 kts 93°
2026-05-04 15:59 43.48481 81.58262 39168 ft 514 kts 93°
2026-05-04 15:59 43.48264 81.68134 39149 ft 514 kts 93°
2026-05-04 16:00 43.48040 81.77911 39159 ft 513 kts 94°
2026-05-04 16:00 43.47805 81.87748 39153 ft 513 kts 94°
2026-05-04 16:01 43.47564 81.97582 39148 ft 513 kts 94°
2026-05-04 16:01 43.47315 82.07369 39150 ft 513 kts 94°
2026-05-04 16:02 43.47057 82.17209 39151 ft 513 kts 94°
2026-05-04 16:03 43.46655 82.31896 39147 ft 514 kts 94°
2026-05-04 16:03 43.46375 82.41749 39147 ft 514 kts 94°
2026-05-04 16:04 43.46087 82.51568 39145 ft 515 kts 94°
2026-05-04 16:04 43.45637 82.66384 39146 ft 517 kts 94°
2026-05-04 16:05 43.45325 82.76290 39151 ft 517 kts 94°
2026-05-04 16:06 43.44843 82.91104 39158 ft 519 kts 95°
2026-05-04 16:07 43.44165 83.11025 39160 ft 521 kts 95°
2026-05-04 16:08 43.43454 83.30940 39143 ft 523 kts 95°
2026-05-04 16:09 43.41730 83.55776 39159 ft 520 kts 99°
2026-05-04 16:10 43.40009 83.75514 39161 ft 520 kts 99°
2026-05-04 16:11 43.38299 83.95246 39155 ft 521 kts 99°
2026-05-04 16:12 43.35647 84.24986 39161 ft 525 kts 100°
2026-05-04 16:13 43.33820 84.44851 39162 ft 527 kts 100°
2026-05-04 16:14 43.31895 84.64851 39151 ft 527 kts 100°
2026-05-04 16:16 43.29462 84.89739 39159 ft 528 kts 101°
2026-05-04 16:17 43.26962 85.14776 39167 ft 530 kts 101°
2026-05-04 16:18 43.26009 85.24153 39175 ft 530 kts 101°
2026-05-04 16:19 43.23429 85.49178 39166 ft 531 kts 101°
2026-05-04 16:20 43.20781 85.74312 39169 ft 536 kts 101°
2026-05-04 16:22 43.19941 85.99531 39196 ft 539 kts 72°
2026-05-04 16:22 43.25677 86.12683 39193 ft 539 kts 53°
2026-05-04 16:23 43.31971 86.25448 39193 ft 540 kts 55°
2026-05-04 16:25 43.44415 86.51198 39170 ft 535 kts 54°
2026-05-04 16:26 43.58783 86.80987 39121 ft 535 kts 55°
2026-05-04 16:28 43.68958 87.02515 39068 ft 537 kts 55°
2026-05-04 16:29 43.83139 87.32841 39027 ft 536 kts 56°
2026-05-04 16:31 43.93344 87.54427 39017 ft 534 kts 51°
2026-05-04 16:32 44.06907 87.79089 38997 ft 536 kts 51°
2026-05-04 16:33 44.15623 87.95934 38978 ft 540 kts 61°
2026-05-04 16:34 44.18471 88.05556 39003 ft 541 kts 75°
2026-05-04 16:34 44.19326 88.10667 39011 ft 540 kts 79°
2026-05-04 16:35 44.23742 88.41599 38979 ft 544 kts 79°
2026-05-04 16:36 44.25772 88.55373 38970 ft 545 kts 79°
2026-05-04 16:37 44.28038 88.70932 38967 ft 545 kts 79°
2026-05-04 16:38 44.31017 88.91692 38946 ft 545 kts 79°
2026-05-04 16:39 44.34685 89.17633 38950 ft 545 kts 79°
2026-05-04 16:40 44.37578 89.38417 38945 ft 546 kts 79°
2026-05-04 16:41 44.40946 89.64561 38931 ft 545 kts 89°
2026-05-04 16:42 44.39628 89.80096 38942 ft 535 kts 110°
2026-05-04 16:43 44.38766 89.83980 38953 ft 535 kts 111°
2026-05-04 16:43 44.36441 89.94150 38953 ft 535 kts 111°
2026-05-04 16:45 44.29835 90.23973 38949 ft 537 kts 111°
2026-05-04 16:46 44.24300 90.48872 38948 ft 537 kts 111°
2026-05-04 16:47 44.19832 90.68747 38950 ft 538 kts 111°
2026-05-04 16:48 44.15325 90.88613 38949 ft 540 kts 111°
2026-05-04 16:49 44.10760 91.08575 38955 ft 541 kts 111°
2026-05-04 16:50 44.06175 91.28559 38955 ft 542 kts 111°
2026-05-04 16:51 44.02726 91.43480 38961 ft 543 kts 112°
2026-05-04 16:52 43.98004 91.63432 38963 ft 542 kts 112°
2026-05-04 16:53 43.94453 91.78313 38971 ft 543 kts 112°
2026-05-04 16:54 43.89680 91.98197 38984 ft 543 kts 112°
2026-05-04 16:55 43.82457 92.27942 38991 ft 543 kts 112°
2026-05-04 16:56 43.76372 92.52710 38987 ft 545 kts 112°
2026-05-04 16:57 43.72688 92.67573 38977 ft 547 kts 112°
2026-05-04 16:58 43.67701 92.87552 38982 ft 550 kts 113°
2026-05-04 17:00 43.60364 93.17557 38979 ft 552 kts 111°
2026-05-04 17:01 43.54332 93.42680 38980 ft 551 kts 112°
2026-05-04 17:02 43.49452 93.62694 38965 ft 552 kts 112°
2026-05-04 17:03 43.45773 93.77678 38958 ft 552 kts 112°
2026-05-04 17:03 43.42057 93.92711 38954 ft 552 kts 112°
2026-05-04 17:04 43.37084 94.12682 38936 ft 552 kts 112°
2026-05-04 17:05 43.32087 94.32575 38940 ft 553 kts 112°
2026-05-04 17:06 43.28284 94.47602 38929 ft 556 kts 112°
2026-05-04 17:07 43.24879 94.60976 38908 ft 557 kts 112°
2026-05-04 17:07 43.22338 94.70910 38903 ft 557 kts 112°
2026-05-04 17:08 43.20789 94.76946 38889 ft 557 kts 112°
2026-05-04 17:09 43.18225 94.86901 38875 ft 556 kts 112°
2026-05-04 17:09 43.15637 94.96914 38861 ft 555 kts 112°
2026-05-04 17:10 43.12416 95.06306 38845 ft 542 kts 131°
2026-05-04 17:10 43.04373 95.16530 38847 ft 517 kts 154°
2026-05-04 17:11 42.98343 95.21943 38825 ft 519 kts 154°
2026-05-04 17:12 42.89322 95.30215 38823 ft 522 kts 153°
2026-05-04 17:13 42.74261 95.44153 38822 ft 525 kts 153°
2026-05-04 17:14 42.62182 95.55255 38811 ft 524 kts 153°
2026-05-04 17:15 42.53133 95.63538 38817 ft 524 kts 153°
2026-05-04 17:16 42.41011 95.74589 38831 ft 524 kts 153°
2026-05-04 17:17 42.28976 95.85687 38852 ft 525 kts 153°
2026-05-04 17:18 42.16902 95.96874 38852 ft 526 kts 153°
2026-05-04 17:19 42.04830 96.07977 38861 ft 528 kts 153°
2026-05-04 17:20 41.92689 96.19174 38862 ft 530 kts 147°
2026-05-04 17:20 41.88319 96.27247 38871 ft 552 kts 112°
2026-05-04 17:20 41.87383 96.32247 38872 ft 556 kts 95°
2026-05-04 17:21 41.87721 96.42579 38881 ft 554 kts 84°
2026-05-04 17:21 41.88327 96.52859 38877 ft 558 kts 85°
2026-05-04 17:22 41.88832 96.63297 38862 ft 561 kts 86°
2026-05-04 17:23 41.89681 96.84219 38848 ft 562 kts 86°
2026-05-04 17:24 41.90301 96.99966 38827 ft 561 kts 86°
2026-05-04 17:25 41.91098 97.20800 38821 ft 559 kts 86°
2026-05-04 17:26 41.91856 97.41611 38816 ft 558 kts 86°
2026-05-04 17:27 41.92690 97.65875 38816 ft 558 kts 86°
2026-05-04 17:28 41.93367 97.86728 38920 ft 560 kts 86°
2026-05-04 17:29 41.93848 98.02353 39482 ft 555 kts 86°
2026-05-04 17:29 41.94307 98.17897 39890 ft 554 kts 86°
2026-05-04 17:30 41.94743 98.33384 40209 ft 554 kts 86°
2026-05-04 17:31 41.95020 98.43644 40483 ft 552 kts 86°
2026-05-04 17:31 41.95419 98.59073 40764 ft 544 kts 86°
2026-05-04 17:32 41.95667 98.69104 40764 ft 537 kts 86°
2026-05-04 17:33 41.95891 98.78454 40783 ft 535 kts 86°
2026-05-04 17:34 41.96345 98.98408 40759 ft 535 kts 86°
2026-05-04 17:35 41.96866 99.23498 40751 ft 539 kts 86°
2026-05-04 17:36 41.97060 99.33589 40743 ft 541 kts 86°
2026-05-04 17:36 41.97244 99.43653 40740 ft 542 kts 86°
2026-05-04 17:37 41.97421 99.53802 40740 ft 542 kts 86°
2026-05-04 17:37 41.97588 99.63913 40735 ft 543 kts 86°
2026-05-04 17:38 41.97748 99.74078 40729 ft 543 kts 86°
2026-05-04 17:38 41.97898 99.84221 40737 ft 542 kts 86°
2026-05-04 17:39 41.98106 99.99394 40724 ft 543 kts 86°
2026-05-04 17:39 41.98234 100.09571 40722 ft 542 kts 86°
2026-05-04 17:40 41.98352 100.19657 40724 ft 542 kts 86°
2026-05-04 17:40 41.98462 100.29791 40723 ft 542 kts 86°
2026-05-04 17:41 41.98563 100.39927 40718 ft 542 kts 86°
2026-05-04 17:41 41.98656 100.50081 40719 ft 542 kts 86°
2026-05-04 17:42 41.98738 100.60174 40724 ft 543 kts 86°
2026-05-04 17:42 41.98813 100.70345 40717 ft 543 kts 86°
2026-05-04 17:43 41.98878 100.80475 40721 ft 544 kts 86°
2026-05-04 17:43 41.98936 100.90680 40719 ft 544 kts 86°
2026-05-04 17:44 41.98790 101.00796 40708 ft 547 kts 94°
2026-05-04 17:44 41.97396 101.10889 40719 ft 550 kts 104°
2026-05-04 17:45 41.94880 101.20612 40729 ft 550 kts 110°
2026-05-04 17:45 41.92165 101.30249 40728 ft 551 kts 110°
2026-05-04 17:46 41.89484 101.39876 40719 ft 552 kts 110°
2026-05-04 17:46 41.86841 101.49492 40712 ft 552 kts 110°
2026-05-04 17:47 41.84181 101.59175 40716 ft 552 kts 110°
2026-05-04 17:47 41.81528 101.68787 40721 ft 552 kts 110°
2026-05-04 17:48 41.78843 101.78457 40704 ft 552 kts 110°
2026-05-04 17:48 41.76149 101.88118 40714 ft 552 kts 110°
2026-05-04 17:49 41.73466 101.97710 40714 ft 553 kts 110°
2026-05-04 17:49 41.70755 102.07361 40731 ft 553 kts 109°
2026-05-04 17:50 41.68034 102.17016 40718 ft 554 kts 110°
2026-05-04 17:50 41.65306 102.26653 40722 ft 554 kts 110°
2026-05-04 17:51 41.62575 102.36270 40729 ft 554 kts 110°
2026-05-04 17:51 41.59843 102.45852 40730 ft 554 kts 110°
2026-05-04 17:52 41.57084 102.55496 40733 ft 555 kts 110°
2026-05-04 17:52 41.54312 102.65150 40728 ft 555 kts 110°
2026-05-04 17:53 41.51578 102.74712 40738 ft 555 kts 109°
2026-05-04 17:53 41.48930 102.84398 40737 ft 554 kts 107°
2026-05-04 17:54 41.46496 102.94170 40734 ft 554 kts 106°
2026-05-04 17:54 41.44015 103.03814 40735 ft 553 kts 108°
2026-05-04 17:55 41.41329 103.13439 40757 ft 553 kts 109°
2026-05-04 17:55 41.38608 103.23037 40753 ft 553 kts 109°
2026-05-04 17:56 41.35926 103.32574 40748 ft 552 kts 108°
2026-05-04 17:56 41.33238 103.42169 40752 ft 552 kts 108°
2026-05-04 17:57 41.30546 103.51750 40773 ft 552 kts 108°
2026-05-04 17:57 41.28316 103.59651 40764 ft 552 kts 108°
2026-05-04 17:58 41.28046 103.60605 40763 ft 552 kts 108°
2026-05-04 17:58 41.25335 103.70166 40758 ft 552 kts 108°
2026-05-04 17:59 41.22636 103.79651 40765 ft 551 kts 108°
2026-05-04 18:00 41.18558 103.93915 40760 ft 551 kts 108°
2026-05-04 18:00 41.15825 104.03435 40766 ft 551 kts 108°
2026-05-04 18:01 41.13103 104.12877 40770 ft 550 kts 108°
2026-05-04 18:01 41.10357 104.22372 40785 ft 550 kts 108°
2026-05-04 18:02 41.06231 104.36570 40770 ft 549 kts 108°
2026-05-04 18:02 41.03492 104.45959 40770 ft 549 kts 108°
2026-05-04 18:03 41.00797 104.55406 40773 ft 548 kts 107°
2026-05-04 18:03 40.98183 104.64886 40788 ft 547 kts 107°
2026-05-04 18:04 40.95569 104.74353 40794 ft 547 kts 107°
2026-05-04 18:05 40.91619 104.88473 40786 ft 547 kts 107°
2026-05-04 18:05 40.88950 104.97940 40799 ft 548 kts 107°
2026-05-04 18:06 40.84962 105.12031 40802 ft 547 kts 107°
2026-05-04 18:06 40.82284 105.21454 40807 ft 547 kts 107°
2026-05-04 18:07 40.79601 105.30861 40820 ft 546 kts 107°
2026-05-04 18:07 40.76931 105.40190 40809 ft 546 kts 107°
2026-05-04 18:08 40.74237 105.49563 40808 ft 545 kts 107°
2026-05-04 18:08 40.71557 105.58858 40811 ft 545 kts 108°
2026-05-04 18:09 40.66162 105.77467 40809 ft 543 kts 108°
2026-05-04 18:10 40.63459 105.86741 40816 ft 542 kts 108°
2026-05-04 18:10 40.60752 105.95995 40817 ft 541 kts 108°
2026-05-04 18:11 40.58037 106.05247 40824 ft 541 kts 108°
2026-05-04 18:11 40.55335 106.14419 40810 ft 540 kts 108°
2026-05-04 18:12 40.52611 106.23632 40812 ft 539 kts 108°
2026-05-04 18:12 40.50346 106.31272 40807 ft 539 kts 108°
2026-05-04 18:13 40.47619 106.40438 40813 ft 538 kts 108°
2026-05-04 18:14 40.43523 106.54147 40799 ft 538 kts 108°
2026-05-04 18:14 40.40776 106.63302 40799 ft 538 kts 109°
2026-05-04 18:15 40.35288 106.81508 40787 ft 538 kts 109°
2026-05-04 18:16 40.32605 106.90682 40786 ft 535 kts 102°
2026-05-04 18:16 40.31548 107.00148 40807 ft 524 kts 85°
2026-05-04 18:17 40.32921 107.14140 40813 ft 515 kts 74°
2026-05-04 18:18 40.34766 107.28045 40811 ft 517 kts 75°
2026-05-04 18:18 40.35923 107.37360 40811 ft 517 kts 76°
2026-05-04 18:19 40.37623 107.51329 40815 ft 518 kts 76°
2026-05-04 18:19 40.38752 107.60648 40816 ft 518 kts 76°
2026-05-04 18:20 40.39870 107.69924 40812 ft 518 kts 76°
2026-05-04 18:20 40.40989 107.79271 40825 ft 519 kts 76°
2026-05-04 18:21 40.42103 107.88643 40816 ft 519 kts 76°
2026-05-04 18:21 40.43207 107.97999 40815 ft 518 kts 76°
2026-05-04 18:22 40.44288 108.07308 40805 ft 518 kts 77°
2026-05-04 18:22 40.45285 108.16007 40813 ft 518 kts 77°
2026-05-04 18:23 40.45291 108.16052 40813 ft 518 kts 77°
2026-05-04 18:23 40.46357 108.25404 40810 ft 518 kts 77°
2026-05-04 18:24 40.47411 108.34710 40806 ft 518 kts 77°
2026-05-04 18:24 40.48467 108.44085 40818 ft 518 kts 77°
2026-05-04 18:25 40.49516 108.53469 40817 ft 518 kts 77°
2026-05-04 18:25 40.50555 108.62849 40813 ft 519 kts 77°
2026-05-04 18:26 40.51587 108.72233 40814 ft 519 kts 77°
2026-05-04 18:26 40.52607 108.81572 40820 ft 519 kts 78°
2026-05-04 18:27 40.53624 108.90963 40819 ft 519 kts 78°
2026-05-04 18:27 40.54635 109.00372 40817 ft 519 kts 78°
2026-05-04 18:28 40.55632 109.09719 40819 ft 519 kts 78°
2026-05-04 18:28 40.56626 109.19116 40835 ft 519 kts 78°
2026-05-04 18:29 40.57617 109.28549 40837 ft 519 kts 78°
2026-05-04 18:29 40.58591 109.37911 40834 ft 519 kts 78°
2026-05-04 18:30 40.60047 109.52035 40851 ft 519 kts 78°
2026-05-04 18:31 40.61009 109.61464 40853 ft 519 kts 78°
2026-05-04 18:31 40.61956 109.70832 40855 ft 519 kts 78°
2026-05-04 18:32 40.62901 109.80245 40874 ft 518 kts 78°
2026-05-04 18:32 40.63839 109.89672 40864 ft 518 kts 78°
2026-05-04 18:33 40.64698 109.99097 40874 ft 520 kts 83°
2026-05-04 18:33 40.64745 110.08600 40863 ft 522 kts 88°
2026-05-04 18:34 40.64614 110.18178 40875 ft 522 kts 87°
2026-05-04 18:34 40.64530 110.27685 40886 ft 521 kts 87°
2026-05-04 18:35 40.64468 110.37250 40890 ft 521 kts 87°
2026-05-04 18:35 40.64396 110.46817 40884 ft 521 kts 87°
2026-05-04 18:36 40.64314 110.56299 40896 ft 521 kts 87°
2026-05-04 18:36 40.64223 110.65846 40901 ft 519 kts 87°
2026-05-04 18:37 40.64127 110.75361 40911 ft 519 kts 87°
2026-05-04 18:37 40.64025 110.84810 40917 ft 518 kts 87°
2026-05-04 18:38 40.63915 110.94300 40905 ft 518 kts 87°
2026-05-04 18:38 40.63796 111.03810 40906 ft 519 kts 88°
2026-05-04 18:39 40.63671 111.13278 40927 ft 519 kts 88°
2026-05-04 18:39 40.63537 111.22788 40917 ft 520 kts 88°
2026-05-04 18:40 40.63395 111.32320 40917 ft 520 kts 88°
2026-05-04 18:40 40.63248 111.41803 40925 ft 520 kts 88°
2026-05-04 18:41 40.63092 111.51334 40927 ft 520 kts 88°
2026-05-04 18:41 40.62929 111.60800 40933 ft 520 kts 88°
2026-05-04 18:42 40.62758 111.70313 40930 ft 520 kts 88°
2026-05-04 18:42 40.62580 111.79823 40946 ft 519 kts 88°
2026-05-04 18:43 40.62394 111.89364 40944 ft 519 kts 88°
2026-05-04 18:43 40.62286 111.98868 40945 ft 519 kts 89°
2026-05-04 18:44 40.61992 112.08312 40949 ft 519 kts 89°
2026-05-04 18:44 40.61766 112.17800 40952 ft 519 kts 88°
2026-05-04 18:45 40.61559 112.27314 40966 ft 519 kts 88°
2026-05-04 18:45 40.61329 112.36827 40948 ft 519 kts 89°
2026-05-04 18:46 40.61088 112.46320 40941 ft 518 kts 88°
2026-05-04 18:46 40.60775 112.55780 40931 ft 518 kts 91°
2026-05-04 18:47 40.60175 112.65233 40927 ft 518 kts 92°
2026-05-04 18:47 40.59601 112.74623 40929 ft 517 kts 92°
2026-05-04 18:48 40.59345 112.78071 40930 ft 517 kts 93°
2026-05-04 18:48 40.58891 112.83312 40942 ft 517 kts 93°
2026-05-04 18:49 40.58218 112.92743 40930 ft 516 kts 92°
2026-05-04 18:49 40.57623 113.02170 40933 ft 516 kts 92°
2026-05-04 18:50 40.57011 113.11541 40933 ft 516 kts 92°
2026-05-04 18:50 40.56370 113.20941 40933 ft 516 kts 92°
2026-05-04 18:51 40.55714 113.30357 40923 ft 516 kts 92°
2026-05-04 18:51 40.55056 113.39713 40924 ft 516 kts 92°
2026-05-04 18:52 40.54386 113.49134 40926 ft 517 kts 92°
2026-05-04 18:52 40.53713 113.58501 40922 ft 517 kts 92°
2026-05-04 18:53 40.53027 113.67946 40917 ft 517 kts 92°
2026-05-04 18:53 40.52338 113.77314 40930 ft 517 kts 92°
2026-05-04 18:54 40.51637 113.86752 40915 ft 518 kts 92°
2026-05-04 18:54 40.50928 113.96189 40918 ft 518 kts 93°
2026-05-04 18:55 40.50314 114.05613 40923 ft 517 kts 90°
2026-05-04 18:55 40.49791 114.19726 40927 ft 517 kts 89°
2026-05-04 18:56 40.49420 114.29190 40920 ft 518 kts 90°
2026-05-04 18:56 40.49007 114.38618 40926 ft 519 kts 90°
2026-05-04 18:57 40.48573 114.48101 40916 ft 519 kts 90°
2026-05-04 18:57 40.48136 114.57525 40926 ft 519 kts 90°
2026-05-04 18:58 40.47690 114.67014 40918 ft 520 kts 90°
2026-05-04 18:58 40.47238 114.76504 40918 ft 519 kts 90°
2026-05-04 18:59 40.46782 114.85909 40917 ft 519 kts 90°
2026-05-04 18:59 40.46314 114.95386 40922 ft 519 kts 90°
2026-05-04 19:00 40.45843 115.04809 40928 ft 519 kts 91°
2026-05-04 19:00 40.45359 115.14264 40925 ft 519 kts 91°
2026-05-04 19:01 40.44869 115.23731 40915 ft 518 kts 91°
2026-05-04 19:01 40.44375 115.33136 40918 ft 518 kts 91°
2026-05-04 19:02 40.43871 115.42574 40920 ft 517 kts 91°
2026-05-04 19:02 40.43448 115.50403 40921 ft 516 kts 91°
2026-05-04 19:03 40.42723 115.61329 40930 ft 517 kts 94°
2026-05-04 19:03 40.42061 115.69143 40932 ft 517 kts 94°
2026-05-04 19:04 40.41261 115.78500 40930 ft 517 kts 94°
2026-05-04 19:04 40.40480 115.87904 40930 ft 516 kts 94°
2026-05-04 19:05 40.39711 115.97228 40941 ft 516 kts 94°
2026-05-04 19:05 40.38929 116.06618 40941 ft 517 kts 94°
2026-05-04 19:06 40.38137 116.16008 40934 ft 517 kts 94°
2026-05-04 19:06 40.37342 116.25329 40925 ft 517 kts 94°
2026-05-04 19:07 40.36538 116.34688 40932 ft 516 kts 94°
2026-05-04 19:07 40.35730 116.43991 40927 ft 516 kts 94°
2026-05-04 19:08 40.34911 116.53336 40929 ft 516 kts 94°
2026-05-04 19:08 40.34054 116.62667 40919 ft 515 kts 99°
2026-05-04 19:09 40.32952 116.67143 40936 ft 518 kts 116°
2026-05-04 19:09 40.30915 116.71059 40928 ft 519 kts 134°
2026-05-04 19:09 40.28195 116.74068 40935 ft 518 kts 148°
2026-05-04 19:09 40.25013 116.76270 40928 ft 516 kts 162°
2026-05-04 19:10 40.21556 116.77415 40935 ft 509 kts 175°
2026-05-04 19:10 40.18047 116.78040 40928 ft 511 kts 175°
2026-05-04 19:10 40.11008 116.79239 40933 ft 514 kts 175°
2026-05-04 19:11 40.03887 116.80596 40928 ft 518 kts 174°
2026-05-04 19:11 39.96751 116.82035 40924 ft 519 kts 174°
2026-05-04 19:12 39.86039 116.84183 40915 ft 520 kts 174°
2026-05-04 19:13 39.82727 116.84758 40914 ft 517 kts 178°
2026-05-04 19:13 39.79326 116.84970 40914 ft 514 kts 183°
2026-05-04 19:14 39.72282 116.84269 40910 ft 508 kts 191°
2026-05-04 19:14 39.65270 116.83029 40915 ft 507 kts 192°
2026-05-04 19:15 39.58262 116.81824 40900 ft 507 kts 191°
2026-05-04 19:15 39.51296 116.80669 40912 ft 507 kts 191°
2026-05-04 19:16 39.44333 116.79529 40915 ft 507 kts 191°
2026-05-04 19:16 39.37318 116.78382 40904 ft 508 kts 191°
2026-05-04 19:17 39.30269 116.77230 40915 ft 509 kts 191°
2026-05-04 19:17 39.23267 116.76086 40915 ft 510 kts 191°
2026-05-04 19:18 39.16206 116.74935 40903 ft 511 kts 191°
2026-05-04 19:18 39.09181 116.73793 40913 ft 511 kts 191°
2026-05-04 19:19 39.02110 116.72646 40915 ft 512 kts 191°
2026-05-04 19:19 38.95054 116.71503 40907 ft 513 kts 191°
2026-05-04 19:20 38.87957 116.70356 40918 ft 513 kts 191°
2026-05-04 19:20 38.80854 116.69210 40916 ft 513 kts 191°
2026-05-04 19:21 38.73799 116.68074 40915 ft 513 kts 191°
2026-05-04 19:21 38.66701 116.66934 40923 ft 513 kts 191°
2026-05-04 19:22 38.59593 116.65892 40912 ft 514 kts 188°
2026-05-04 19:22 38.52470 116.65131 40924 ft 513 kts 188°
2026-05-04 19:23 38.45380 116.64366 40929 ft 512 kts 188°
2026-05-04 19:23 38.38267 116.63549 40917 ft 512 kts 188°
2026-05-04 19:24 38.31187 116.63067 40919 ft 514 kts 180°
2026-05-04 19:24 38.24058 116.64265 40938 ft 518 kts 169°
2026-05-04 19:25 38.17164 116.66865 40928 ft 519 kts 165°
2026-05-04 19:25 38.10234 116.69502 40936 ft 518 kts 166°
2026-05-04 19:26 38.03304 116.72117 40938 ft 518 kts 166°
2026-05-04 19:26 37.96428 116.74750 40940 ft 519 kts 165°
2026-05-04 19:27 37.89505 116.77396 40949 ft 519 kts 166°
2026-05-04 19:27 37.82577 116.80032 40950 ft 519 kts 166°
2026-05-04 19:28 37.75692 116.82643 40947 ft 519 kts 166°
2026-05-04 19:28 37.68758 116.85267 40940 ft 519 kts 166°
2026-05-04 19:29 37.61871 116.87869 40959 ft 519 kts 166°
2026-05-04 19:29 37.54953 116.90479 40959 ft 519 kts 166°
2026-05-04 19:30 37.48026 116.93086 40961 ft 518 kts 166°
2026-05-04 19:30 37.41139 116.95674 40964 ft 518 kts 166°
2026-05-04 19:31 37.34236 116.98264 40968 ft 517 kts 166°
2026-05-04 19:31 37.27390 117.00973 40972 ft 518 kts 162°
2026-05-04 19:32 37.20643 117.04219 40970 ft 518 kts 161°
2026-05-04 19:32 37.13873 117.07402 40978 ft 517 kts 162°
2026-05-04 19:33 37.07149 117.10511 40974 ft 517 kts 162°
2026-05-04 19:33 37.00394 117.13640 40983 ft 517 kts 162°
2026-05-04 19:34 36.93679 117.16755 40984 ft 517 kts 162°
2026-05-04 19:34 36.86890 117.19789 40986 ft 515 kts 167°
2026-05-04 19:35 36.79940 117.21432 40998 ft 508 kts 178°
2026-05-04 19:35 36.72901 117.21636 41007 ft 503 kts 185°
2026-05-04 19:36 36.65896 117.21494 41015 ft 503 kts 185°
2026-05-04 19:36 36.58888 117.21414 41017 ft 503 kts 184°
2026-05-04 19:37 36.51865 117.21371 41011 ft 503 kts 184°
2026-05-04 19:37 36.44893 117.21394 41033 ft 505 kts 180°
2026-05-04 19:38 36.42207 117.21701 41033 ft 507 kts 176°
2026-05-04 19:38 36.38457 117.22503 41043 ft 510 kts 171°
2026-05-04 19:39 36.31604 117.24991 41049 ft 513 kts 166°
2026-05-04 19:39 36.24842 117.27602 41053 ft 512 kts 167°
2026-05-04 19:40 36.18015 117.30168 41057 ft 511 kts 167°
2026-05-04 19:40 36.11198 117.32692 41060 ft 511 kts 167°
2026-05-04 19:41 36.04379 117.35215 41048 ft 511 kts 167°
2026-05-04 19:41 35.97571 117.37738 41069 ft 512 kts 167°
2026-05-04 19:42 35.90751 117.40291 41075 ft 512 kts 167°
2026-05-04 19:42 35.83953 117.42842 41062 ft 512 kts 167°
2026-05-04 19:43 35.77128 117.45396 41059 ft 512 kts 167°
2026-05-04 19:43 35.70278 117.47950 41075 ft 513 kts 167°
2026-05-04 19:44 35.63481 117.50480 41076 ft 513 kts 167°
2026-05-04 19:44 35.56635 117.53024 41075 ft 513 kts 167°
2026-05-04 19:45 35.49790 117.55563 41075 ft 513 kts 167°
2026-05-04 19:45 35.42991 117.58081 41073 ft 513 kts 167°
2026-05-04 19:46 35.36158 117.60606 41082 ft 513 kts 167°
2026-05-04 19:46 35.29351 117.63118 41073 ft 512 kts 168°
2026-05-04 19:47 35.22526 117.65632 41084 ft 512 kts 168°
2026-05-04 19:47 35.15692 117.68145 41089 ft 512 kts 168°
2026-05-04 19:48 35.08860 117.70654 41091 ft 512 kts 168°
2026-05-04 19:48 35.02072 117.73136 41090 ft 511 kts 168°
2026-05-04 19:49 34.95239 117.75622 41089 ft 511 kts 168°
2026-05-04 19:49 34.88405 117.78108 41088 ft 511 kts 168°
2026-05-04 19:50 34.81627 117.80555 41068 ft 511 kts 168°
2026-05-04 19:50 34.74798 117.82992 41085 ft 510 kts 168°
2026-05-04 19:51 34.67979 117.85442 41092 ft 510 kts 168°
2026-05-04 19:51 34.61210 117.87873 41094 ft 510 kts 168°
2026-05-04 19:52 34.54408 117.90310 41083 ft 509 kts 168°
2026-05-04 19:52 34.47599 117.92744 41091 ft 509 kts 168°
2026-05-04 19:53 34.40825 117.95161 41086 ft 509 kts 168°
2026-05-04 19:53 34.35125 117.97193 41072 ft 509 kts 168°
2026-05-04 19:54 34.28373 117.99596 41078 ft 509 kts 169°
2026-05-04 19:54 34.21572 118.02060 41082 ft 510 kts 168°
2026-05-04 19:55 34.14818 118.04548 41081 ft 510 kts 168°
2026-05-04 19:55 34.08013 118.07041 41083 ft 510 kts 168°
2026-05-04 19:56 34.01211 118.09522 41076 ft 510 kts 169°
2026-05-04 19:56 33.94418 118.12006 41084 ft 510 kts 169°
2026-05-04 19:57 33.87628 118.14490 41080 ft 510 kts 169°
2026-05-04 19:57 33.80969 118.17557 41057 ft 518 kts 159°
2026-05-04 19:58 33.74763 118.22049 41083 ft 524 kts 150°
2026-05-04 19:58 33.68801 118.27095 41087 ft 524 kts 149°
2026-05-04 19:59 33.62825 118.32130 41086 ft 524 kts 150°
2026-05-04 19:59 33.56832 118.37106 41093 ft 524 kts 150°
2026-05-04 20:00 33.50866 118.42029 41068 ft 524 kts 151°
2026-05-04 20:00 33.44865 118.46974 41091 ft 524 kts 151°
2026-05-04 20:01 33.38856 118.51922 41097 ft 525 kts 151°
2026-05-04 20:01 33.32834 118.56874 41094 ft 525 kts 151°
2026-05-04 20:02 33.26810 118.61819 41095 ft 526 kts 151°
2026-05-04 20:02 33.20785 118.66757 41077 ft 526 kts 151°
2026-05-04 20:03 33.17879 118.69152 41087 ft 526 kts 151°
2026-05-04 20:03 33.15260 118.71326 41097 ft 526 kts 151°
2026-05-04 20:04 33.09255 118.76324 41100 ft 526 kts 151°
2026-05-04 20:04 33.03254 118.81306 41097 ft 526 kts 151°
2026-05-04 20:05 32.97256 118.86267 41101 ft 526 kts 151°
2026-05-04 20:05 32.91217 118.91254 41103 ft 526 kts 151°
2026-05-04 20:06 32.85197 118.96218 41099 ft 526 kts 151°
2026-05-04 20:06 32.79217 119.01170 41106 ft 526 kts 151°
2026-05-04 20:07 32.73199 119.06172 41106 ft 526 kts 151°
2026-05-04 20:07 32.67241 119.11116 41104 ft 526 kts 151°
2026-05-04 20:08 32.61233 119.16089 41104 ft 525 kts 151°
2026-05-04 20:08 32.55235 119.21043 41113 ft 525 kts 151°
2026-05-04 20:09 32.49225 119.25998 41100 ft 525 kts 152°
2026-05-04 20:09 32.43252 119.30914 41118 ft 525 kts 152°
2026-05-04 20:10 32.37245 119.35851 41113 ft 526 kts 152°
2026-05-04 20:10 32.31253 119.40769 41108 ft 526 kts 152°
2026-05-04 20:11 32.25214 119.45716 41121 ft 526 kts 152°
2026-05-04 20:11 32.19200 119.50635 41127 ft 527 kts 152°
2026-05-04 20:12 32.13178 119.55551 41123 ft 527 kts 152°
2026-05-04 20:12 32.07141 119.60475 41124 ft 528 kts 152°
2026-05-04 20:13 32.01100 119.65394 41107 ft 527 kts 153°
2026-05-04 20:13 31.95323 119.70724 41118 ft 537 kts 142°
2026-05-04 20:14 31.90348 119.77362 40883 ft 545 kts 131°
2026-05-04 20:14 31.88180 119.81041 40161 ft 548 kts 129°
2026-05-04 20:14 31.86077 119.84786 39482 ft 547 kts 129°
2026-05-04 20:14 31.83999 119.88525 38774 ft 547 kts 129°
2026-05-04 20:15 31.81896 119.92274 37868 ft 546 kts 130°
2026-05-04 20:15 31.79789 119.95975 37059 ft 544 kts 130°
2026-05-04 20:15 31.77675 119.99648 36263 ft 541 kts 130°
2026-05-04 20:15 31.75557 120.03298 35414 ft 540 kts 130°
2026-05-04 20:16 31.73462 120.06898 34438 ft 541 kts 130°
2026-05-04 20:16 31.71335 120.10547 33323 ft 542 kts 129°
2026-05-04 20:16 31.69178 120.14252 32141 ft 542 kts 129°
2026-05-04 20:16 31.67078 120.17863 31011 ft 542 kts 129°
2026-05-04 20:17 31.64959 120.21509 29996 ft 538 kts 129°
2026-05-04 20:17 31.62841 120.25151 29121 ft 528 kts 129°
2026-05-04 20:17 31.60837 120.28655 28357 ft 520 kts 126°
2026-05-04 20:17 31.59070 120.32331 27632 ft 514 kts 120°
2026-05-04 20:18 31.57585 120.36119 26904 ft 509 kts 114°
2026-05-04 20:18 31.56419 120.40015 26161 ft 503 kts 110°
2026-05-04 20:18 31.55330 120.43880 25456 ft 497 kts 110°
2026-05-04 20:18 31.54241 120.47696 24760 ft 490 kts 110°
2026-05-04 20:19 31.53152 120.51455 24065 ft 484 kts 110°
2026-05-04 20:19 31.52065 120.55162 23318 ft 479 kts 110°
2026-05-04 20:19 31.50984 120.58827 22547 ft 472 kts 110°
2026-05-04 20:19 31.49916 120.62439 21833 ft 466 kts 110°
2026-05-04 20:20 31.48861 120.66002 21154 ft 459 kts 110°
2026-05-04 20:20 31.47821 120.69513 20501 ft 454 kts 110°
2026-05-04 20:20 31.46791 120.72989 19849 ft 449 kts 110°
2026-05-04 20:20 31.45772 120.76426 19228 ft 445 kts 110°
2026-05-04 20:21 31.44757 120.79835 18599 ft 442 kts 110°
2026-05-04 20:21 31.43719 120.83206 17906 ft 439 kts 111°
2026-05-04 20:21 31.41634 120.89867 16619 ft 430 kts 110°
2026-05-04 20:22 31.40865 120.93195 15993 ft 423 kts 98°
2026-05-04 20:22 31.40818 120.96609 15527 ft 416 kts 84°
2026-05-04 20:22 31.41366 120.99884 15153 ft 403 kts 71°
2026-05-04 20:22 31.42343 121.02929 14815 ft 401 kts 68°
2026-05-04 20:23 31.43313 121.06000 14465 ft 404 kts 69°
2026-05-04 20:23 31.44181 121.09119 14090 ft 401 kts 76°
2026-05-04 20:23 31.44610 121.12332 13717 ft 399 kts 86°
2026-05-04 20:23 31.44626 121.15564 13320 ft 396 kts 94°
2026-05-04 20:24 31.44278 121.18749 12943 ft 391 kts 98°
2026-05-04 20:24 31.43895 121.21868 12448 ft 385 kts 97°
2026-05-04 20:24 31.43545 121.24970 11864 ft 383 kts 97°
2026-05-04 20:24 31.43210 121.28051 11290 ft 380 kts 97°
2026-05-04 20:25 31.42879 121.31107 10722 ft 377 kts 97°
2026-05-04 20:25 31.42551 121.34145 10158 ft 375 kts 96°
2026-05-04 20:25 31.42224 121.37156 9682 ft 369 kts 96°
2026-05-04 20:25 31.41902 121.40110 9315 ft 360 kts 96°
2026-05-04 20:26 31.41594 121.42912 9215 ft 344 kts 96°
2026-05-04 20:26 31.41296 121.45631 9110 ft 330 kts 96°
2026-05-04 20:26 31.41009 121.48238 9007 ft 316 kts 96°
2026-05-04 20:26 31.40733 121.50736 8919 ft 303 kts 96°
2026-05-04 20:27 31.40474 121.53070 8726 ft 275 kts 96°
2026-05-04 20:27 31.40237 121.55203 8418 ft 255 kts 96°
2026-05-04 20:27 31.39996 121.57215 7943 ft 245 kts 101°
2026-05-04 20:27 31.39527 121.58869 7427 ft 242 kts 112°
2026-05-04 20:28 31.39474 121.59014 7384 ft 242 kts 112°
2026-05-04 20:28 31.38788 121.60799 6826 ft 239 kts 114°
2026-05-04 20:28 31.38112 121.62564 6242 ft 236 kts 113°
2026-05-04 20:29 31.37464 121.64307 5646 ft 232 kts 113°
2026-05-04 20:29 31.36827 121.66052 4973 ft 234 kts 113°
2026-05-04 20:29 31.36194 121.67801 4367 ft 231 kts 114°
2026-05-04 20:29 31.35563 121.69511 3815 ft 227 kts 118°
2026-05-04 20:30 31.34537 121.70866 3426 ft 223 kts 151°
2026-05-04 20:30 31.33141 121.71556 3194 ft 215 kts 161°
2026-05-04 20:30 31.31764 121.72134 3094 ft 205 kts 162°
2026-05-04 20:30 31.30449 121.72651 3021 ft 193 kts 163°
2026-05-04 20:31 31.29202 121.73127 2861 ft 186 kts 163°
2026-05-04 20:31 31.27970 121.73594 2585 ft 186 kts 163°
2026-05-04 20:31 31.26773 121.74048 2355 ft 180 kts 163°
2026-05-04 20:31 31.25596 121.74496 2092 ft 175 kts 163°
2026-05-04 20:32 31.24447 121.74933 1855 ft 167 kts 163°
2026-05-04 20:32 31.23379 121.75338 1666 ft 157 kts 163°
2026-05-04 20:32 31.22368 121.75722 1436 ft 148 kts 163°
2026-05-04 20:32 31.21446 121.76073 1254 ft 135 kts 163°
2026-05-04 20:33 31.20568 121.76406 1090 ft 132 kts 163°
2026-05-04 20:33 31.19704 121.76733 928 ft 129 kts 163°
2026-05-04 20:33 31.18842 121.77059 751 ft 132 kts 163°
2026-05-04 20:33 31.17960 121.77395 576 ft 134 kts 162°
2026-05-04 20:34 31.17078 121.77729 385 ft 132 kts 162°
2026-05-04 20:34 31.16189 121.78070 220 ft 135 kts 162°
2026-05-04 20:34 31.15291 121.78400 52 ft 135 kts 162°
2026-05-04 20:34 31.14460 121.78718 27 ft 110 kts 161°
2026-05-04 20:35 31.13876 121.78941 30 ft 66 kts 162°
2026-05-04 20:35 31.13596 121.79075 28 ft 30 kts 144°
2026-05-04 20:35 31.13440 121.79237 27 ft 30 kts 137°
2026-05-04 20:35 31.13322 121.79406 28 ft 22 kts 96°
2026-05-04 20:36 31.13363 121.79578 27 ft 22 kts 73°
2026-05-04 20:36 31.13411 121.79749 32 ft 22 kts 72°
2026-05-04 20:36 31.13458 121.79920 27 ft 22 kts 72°
2026-05-04 20:36 31.13503 121.80092 27 ft 22 kts 78°
2026-05-04 20:37 31.13437 121.80168 27 ft 14 kts 160°
2026-05-04 20:37 31.13341 121.80204 27 ft 14 kts 162°
2026-05-04 20:37 31.13246 121.80240 27 ft 14 kts 162°
2026-05-04 20:37 31.13235 121.80305 26 ft 9 kts 59°
2026-05-04 20:38 31.13250 121.80346 27 ft 1 kts 71°
2026-05-04 20:38 31.13253 121.80354 27 ft 0 kts 71°